Wetterdaten: Dienstag, 12.08.2014
Datum Zeit Temp. Aussen +5cm Feuchte Auss Luftdruck Regen Sonnenschein Regendauer UV Solar Windben
12.08.2014 00:00 15,5 C 13,9 C 84 % 1011,2 hPa 0,0 l/m 0 min 0 min 0,0 UV-I 0 W/m 35,4 km/h (5 Bft)
12.08.2014 00:02 15,4 C 13,9 C 84 % 1011,2 hPa 0,0 l/m 0 min 0 min 0,0 UV-I 0 W/m 35,4 km/h (5 Bft)
12.08.2014 00:05 15,4 C 13,9 C 84 % 1011,2 hPa 0,0 l/m 0 min 0 min 0,0 UV-I 0 W/m 35,4 km/h (5 Bft)
12.08.2014 00:06 15,4 C 13,9 C 84 % 1011,2 hPa 0,0 l/m 0 min 0 min 0,0 UV-I 0 W/m 42,4 km/h (6 Bft)
12.08.2014 00:08 15,4 C 13,9 C 84 % 1011,1 hPa 0,0 l/m 0 min 0 min 0,0 UV-I 0 W/m 24,7 km/h (4 Bft)
12.08.2014 00:10 15,4 C 13,9 C 84 % 1011,2 hPa 0,0 l/m 0 min 0 min 0,0 UV-I 0 W/m 31,7 km/h (5 Bft)
12.08.2014 00:12 15,3 C 13,9 C 84 % 1011,2 hPa 0,0 l/m 0 min 0 min 0,0 UV-I 0 W/m 21,3 km/h (4 Bft)
12.08.2014 00:14 15,2 C 13,9 C 84 % 1011,1 hPa 0,0 l/m 0 min 0 min 0,0 UV-I 0 W/m 17,7 km/h (3 Bft)
12.08.2014 00:16 15,2 C 13,9 C 85 % 1011,2 hPa 0,0 l/m 0 min 0 min 0,0 UV-I 0 W/m 21,3 km/h (4 Bft)
12.08.2014 00:18 15,2 C 13,9 C 85 % 1011,1 hPa 0,0 l/m 0 min 0 min 0,0 UV-I 0 W/m 28,2 km/h (4 Bft)
12.08.2014 00:20 15,2 C 13,9 C 85 % 1011,1 hPa 0,0 l/m 0 min 0 min 0,0 UV-I 0 W/m 24,7 km/h (4 Bft)
12.08.2014 00:22 15,1 C 13,3 C 85 % 1011,2 hPa 0,0 l/m 0 min 0 min 0,0 UV-I 0 W/m 21,3 km/h (4 Bft)
12.08.2014 00:24 15,1 C 13,3 C 85 % 1011,2 hPa 0,0 l/m 0 min 0 min 0,0 UV-I 0 W/m 21,3 km/h (4 Bft)
12.08.2014 00:26 15,1 C 13,3 C 85 % 1011,2 hPa 0,0 l/m 0 min 0 min 0,0 UV-I 0 W/m 17,7 km/h (3 Bft)
12.08.2014 00:28 15,0 C 13,3 C 86 % 1011,2 hPa 0,0 l/m 0 min 0 min 0,0 UV-I 0 W/m 24,7 km/h (4 Bft)
12.08.2014 00:30 15,0 C 13,3 C 86 % 1011,2 hPa 0,0 l/m 0 min 0 min 0,0 UV-I 0 W/m 24,7 km/h (4 Bft)
12.08.2014 00:32 14,9 C 13,3 C 86 % 1011,2 hPa 0,0 l/m 0 min 0 min 0,0 UV-I 0 W/m 21,3 km/h (4 Bft)
12.08.2014 00:34 14,9 C 13,3 C 86 % 1011,2 hPa 0,0 l/m 0 min 0 min 0,0 UV-I 0 W/m 24,7 km/h (4 Bft)
12.08.2014 00:36 14,9 C 13,3 C 86 % 1011,1 hPa 0,0 l/m 0 min 0 min 0,0 UV-I 0 W/m 31,7 km/h (5 Bft)
12.08.2014 00:38 14,9 C 13,3 C 86 % 1011,1 hPa 0,0 l/m 0 min 0 min 0,0 UV-I 0 W/m 21,3 km/h (4 Bft)
12.08.2014 00:40 14,9 C 13,3 C 86 % 1011,1 hPa 0,0 l/m 0 min 0 min 0,0 UV-I 0 W/m 14,2 km/h (3 Bft)
12.08.2014 00:42 14,9 C 13,9 C 86 % 1011,2 hPa 0,0 l/m 0 min 0 min 0,0 UV-I 0 W/m 24,7 km/h (4 Bft)
12.08.2014 00:44 15,0 C 13,9 C 86 % 1011,2 hPa 0,0 l/m 0 min 0 min 0,0 UV-I 0 W/m 17,7 km/h (3 Bft)
12.08.2014 00:46 15,0 C 13,9 C 86 % 1011,2 hPa 0,0 l/m 0 min 0 min 0,0 UV-I 0 W/m 35,4 km/h (5 Bft)
12.08.2014 00:48 14,9 C 13,9 C 86 % 1011,1 hPa 0,0 l/m 0 min 0 min 0,0 UV-I 0 W/m 35,4 km/h (5 Bft)
12.08.2014 00:50 15,0 C 13,9 C 86 % 1011,1 hPa 0,0 l/m 0 min 0 min 0,0 UV-I 0 W/m 38,9 km/h (6 Bft)
12.08.2014 00:52 15,0 C 13,9 C 86 % 1011,1 hPa 0,0 l/m 0 min 0 min 0,0 UV-I 0 W/m 31,7 km/h (5 Bft)
12.08.2014 00:54 14,9 C 13,3 C 86 % 1011,1 hPa 0,0 l/m 0 min 0 min 0,0 UV-I 0 W/m 35,4 km/h (5 Bft)
12.08.2014 00:56 14,9 C 13,3 C 86 % 1011,1 hPa 0,0 l/m 0 min 0 min 0,0 UV-I 0 W/m 21,3 km/h (4 Bft)
12.08.2014 00:58 14,9 C 13,3 C 86 % 1011,0 hPa 0,0 l/m 0 min 0 min 0,0 UV-I 0 W/m 31,7 km/h (5 Bft)
12.08.2014 01:00 14,9 C 13,9 C 86 % 1011,0 hPa 0,2 l/m 0 min 0 min 0,0 UV-I 0 W/m 21,3 km/h (4 Bft)
12.08.2014 01:02 14,9 C 13,9 C 86 % 1011,1 hPa 0,0 l/m 0 min 0 min 0,0 UV-I 0 W/m 21,3 km/h (4 Bft)
12.08.2014 01:04 14,9 C 13,9 C 86 % 1011,1 hPa 0,0 l/m 0 min 0 min 0,0 UV-I 0 W/m 21,3 km/h (4 Bft)
12.08.2014 01:06 14,9 C 13,9 C 86 % 1011,0 hPa 0,0 l/m 0 min 0 min 0,0 UV-I 0 W/m 24,7 km/h (4 Bft)
12.08.2014 01:08 14,9 C 13,3 C 86 % 1011,1 hPa 0,0 l/m 0 min 0 min 0,0 UV-I 0 W/m 24,7 km/h (4 Bft)
12.08.2014 01:10 14,9 C 13,9 C 86 % 1011,0 hPa 0,0 l/m 0 min 0 min 0,0 UV-I 0 W/m 28,2 km/h (4 Bft)
12.08.2014 01:12 14,9 C 13,3 C 86 % 1011,0 hPa 0,0 l/m 0 min 0 min 0,0 UV-I 0 W/m 28,2 km/h (4 Bft)
12.08.2014 01:14 14,9 C 13,3 C 86 % 1011,0 hPa 0,0 l/m 0 min 0 min 0,0 UV-I 0 W/m 31,7 km/h (5 Bft)
12.08.2014 01:16 14,9 C 13,3 C 86 % 1011,0 hPa 0,0 l/m 0 min 0 min 0,0 UV-I 0 W/m 24,7 km/h (4 Bft)
12.08.2014 01:18 14,8 C 13,3 C 86 % 1011,1 hPa 0,0 l/m 0 min 0 min 0,0 UV-I 0 W/m 21,3 km/h (4 Bft)
12.08.2014 01:20 14,8 C 13,3 C 86 % 1011,1 hPa 0,0 l/m 0 min 0 min 0,0 UV-I 0 W/m 24,7 km/h (4 Bft)
12.08.2014 01:22 14,8 C 13,3 C 86 % 1011,1 hPa 0,0 l/m 0 min 0 min 0,0 UV-I 0 W/m 31,7 km/h (5 Bft)
12.08.2014 01:24 14,8 C 13,3 C 86 % 1011,0 hPa 0,0 l/m 0 min 0 min 0,0 UV-I 0 W/m 17,7 km/h (3 Bft)
12.08.2014 01:26 14,7 C 13,3 C 87 % 1011,0 hPa 0,0 l/m 0 min 0 min 0,0 UV-I 0 W/m 31,7 km/h (5 Bft)
12.08.2014 01:28 14,7 C 13,3 C 87 % 1011,0 hPa 0,0 l/m 0 min 0 min 0,0 UV-I 0 W/m 28,2 km/h (4 Bft)
12.08.2014 01:30 14,6 C 13,3 C 87 % 1011,1 hPa 0,0 l/m 0 min 0 min 0,0 UV-I 0 W/m 31,7 km/h (5 Bft)
12.08.2014 01:32 14,6 C 13,3 C 87 % 1011,1 hPa 0,0 l/m 0 min 0 min 0,0 UV-I 0 W/m 17,7 km/h (3 Bft)
12.08.2014 01:34 14,6 C 13,3 C 87 % 1011,1 hPa 0,0 l/m 0 min 0 min 0,0 UV-I 0 W/m 24,7 km/h (4 Bft)
12.08.2014 01:36 14,6 C 13,3 C 87 % 1011,1 hPa 0,0 l/m 0 min 0 min 0,0 UV-I 0 W/m 14,2 km/h (3 Bft)
12.08.2014 01:38 14,6 C 13,3 C 87 % 1011,2 hPa 0,0 l/m 0 min 0 min 0,0 UV-I 0 W/m 28,2 km/h (4 Bft)
12.08.2014 01:40 14,5 C 13,3 C 87 % 1011,1 hPa 0,0 l/m 0 min 0 min 0,0 UV-I 0 W/m 28,2 km/h (4 Bft)
12.08.2014 01:42 14,5 C 13,3 C 87 % 1011,1 hPa 0,0 l/m 0 min 0 min 0,0 UV-I 0 W/m 31,7 km/h (5 Bft)
12.08.2014 01:44 14,4 C 13,3 C 87 % 1011,1 hPa 0,0 l/m 0 min 0 min 0,0 UV-I 0 W/m 17,7 km/h (3 Bft)
12.08.2014 01:46 14,4 C 13,3 C 88 % 1011,1 hPa 0,0 l/m 0 min 0 min 0,0 UV-I 0 W/m 28,2 km/h (4 Bft)
12.08.2014 01:48 14,4 C 13,3 C 88 % 1011,1 hPa 0,0 l/m 0 min 0 min 0,0 UV-I 0 W/m 24,7 km/h (4 Bft)
12.08.2014 01:50 14,4 C 12,8 C 88 % 1011,2 hPa 0,0 l/m 0 min 0 min 0,0 UV-I 0 W/m 14,2 km/h (3 Bft)
12.08.2014 01:52 14,3 C 13,3 C 88 % 1011,1 hPa 0,0 l/m 0 min 0 min 0,0 UV-I 0 W/m 35,4 km/h (5 Bft)
12.08.2014 01:54 14,3 C 13,3 C 88 % 1011,1 hPa 0,0 l/m 0 min 0 min 0,0 UV-I 0 W/m 21,3 km/h (4 Bft)
12.08.2014 01:56 14,3 C 13,3 C 88 % 1011,1 hPa 0,0 l/m 0 min 0 min 0,0 UV-I 0 W/m 35,4 km/h (5 Bft)
12.08.2014 01:58 14,3 C 13,3 C 88 % 1011,1 hPa 0,0 l/m 0 min 0 min 0,0 UV-I 0 W/m 24,7 km/h (4 Bft)
12.08.2014 02:00 14,3 C 13,3 C 88 % 1011,0 hPa 0,0 l/m 0 min 0 min 0,0 UV-I 0 W/m 28,2 km/h (4 Bft)
12.08.2014 02:02 14,3 C 13,3 C 88 % 1011,0 hPa 0,0 l/m 0 min 0 min 0,0 UV-I 0 W/m 24,7 km/h (4 Bft)
12.08.2014 02:04 14,3 C 13,3 C 88 % 1011,0 hPa 0,0 l/m 0 min 0 min 0,0 UV-I 0 W/m 31,7 km/h (5 Bft)
12.08.2014 02:06 14,3 C 13,3 C 88 % 1011,0 hPa 0,0 l/m 0 min 0 min 0,0 UV-I 0 W/m 24,7 km/h (4 Bft)
12.08.2014 02:08 14,3 C 12,8 C 88 % 1011,0 hPa 0,0 l/m 0 min 0 min 0,0 UV-I 0 W/m 21,3 km/h (4 Bft)
12.08.2014 02:10 14,2 C 12,8 C 88 % 1011,0 hPa 0,0 l/m 0 min 0 min 0,0 UV-I 0 W/m 28,2 km/h (4 Bft)
12.08.2014 02:12 14,2 C 12,8 C 88 % 1011,0 hPa 0,0 l/m 0 min 0 min 0,0 UV-I 0 W/m 21,3 km/h (4 Bft)
12.08.2014 02:14 14,2 C 12,8 C 89 % 1011,0 hPa 0,0 l/m 0 min 0 min 0,0 UV-I 0 W/m 28,2 km/h (4 Bft)
12.08.2014 02:16 14,2 C 12,8 C 89 % 1011,0 hPa 0,0 l/m 0 min 0 min 0,0 UV-I 0 W/m 24,7 km/h (4 Bft)
12.08.2014 02:18 14,2 C 12,8 C 89 % 1011,0 hPa 0,0 l/m 0 min 0 min 0,0 UV-I 0 W/m 24,7 km/h (4 Bft)
12.08.2014 02:20 14,2 C 12,8 C 89 % 1011,0 hPa 0,0 l/m 0 min 0 min 0,0 UV-I 0 W/m 17,7 km/h (3 Bft)
12.08.2014 02:22 14,2 C 12,8 C 89 % 1011,0 hPa 0,0 l/m 0 min 0 min 0,0 UV-I 0 W/m 24,7 km/h (4 Bft)
12.08.2014 02:24 14,2 C 12,8 C 89 % 1010,9 hPa 0,0 l/m 0 min 0 min 0,0 UV-I 0 W/m 24,7 km/h (4 Bft)
12.08.2014 02:26 14,2 C 12,8 C 89 % 1011,0 hPa 0,0 l/m 0 min 0 min 0,0 UV-I 0 W/m 17,7 km/h (3 Bft)
12.08.2014 02:28 14,2 C 12,8 C 89 % 1010,9 hPa 0,0 l/m 0 min 0 min 0,0 UV-I 0 W/m 28,2 km/h (4 Bft)
12.08.2014 02:30 14,2 C 12,8 C 89 % 1010,9 hPa 0,0 l/m 0 min 0 min 0,0 UV-I 0 W/m 21,3 km/h (4 Bft)
12.08.2014 02:32 14,2 C 12,8 C 89 % 1010,9 hPa 0,0 l/m 0 min 0 min 0,0 UV-I 0 W/m 28,2 km/h (4 Bft)
12.08.2014 02:34 14,2 C 12,8 C 89 % 1011,0 hPa 0,0 l/m 0 min 0 min 0,0 UV-I 0 W/m 28,2 km/h (4 Bft)
12.08.2014 02:36 14,2 C 12,8 C 89 % 1010,9 hPa 0,0 l/m 0 min 0 min 0,0 UV-I 0 W/m 21,3 km/h (4 Bft)
12.08.2014 02:38 14,2 C 12,8 C 89 % 1010,9 hPa 0,0 l/m 0 min 0 min 0,0 UV-I 0 W/m 24,7 km/h (4 Bft)
12.08.2014 02:40 14,2 C 12,8 C 89 % 1010,9 hPa 0,0 l/m 0 min 0 min 0,0 UV-I 0 W/m 28,2 km/h (4 Bft)
12.08.2014 02:42 14,2 C 12,8 C 89 % 1010,8 hPa 0,0 l/m 0 min 0 min 0,0 UV-I 0 W/m 28,2 km/h (4 Bft)
12.08.2014 02:44 14,2 C 12,8 C 89 % 1010,8 hPa 0,0 l/m 0 min 0 min 0,0 UV-I 0 W/m 24,7 km/h (4 Bft)
12.08.2014 02:46 14,2 C 13,3 C 89 % 1010,8 hPa 0,0 l/m 0 min 0 min 0,0 UV-I 0 W/m 24,7 km/h (4 Bft)
12.08.2014 02:48 14,2 C 13,3 C 90 % 1010,8 hPa 0,0 l/m 0 min 0 min 0,0 UV-I 0 W/m 31,7 km/h (5 Bft)
12.08.2014 02:50 14,3 C 13,3 C 89 % 1010,8 hPa 0,0 l/m 0 min 0 min 0,0 UV-I 0 W/m 24,7 km/h (4 Bft)
12.08.2014 02:52 14,3 C 13,3 C 90 % 1010,8 hPa 0,0 l/m 0 min 0 min 0,0 UV-I 0 W/m 28,2 km/h (4 Bft)
12.08.2014 02:54 14,3 C 13,3 C 89 % 1010,8 hPa 0,0 l/m 0 min 0 min 0,0 UV-I 0 W/m 24,7 km/h (4 Bft)
12.08.2014 02:56 14,3 C 13,3 C 89 % 1010,7 hPa 0,0 l/m 0 min 0 min 0,0 UV-I 0 W/m 31,7 km/h (5 Bft)
12.08.2014 02:58 14,3 C 13,3 C 89 % 1010,8 hPa 0,0 l/m 0 min 0 min 0,0 UV-I 0 W/m 28,2 km/h (4 Bft)
12.08.2014 03:00 14,3 C 13,3 C 89 % 1010,8 hPa 0,0 l/m 0 min 0 min 0,0 UV-I 0 W/m 31,7 km/h (5 Bft)
12.08.2014 03:02 14,3 C 13,3 C 89 % 1010,8 hPa 0,0 l/m 0 min 0 min 0,0 UV-I 0 W/m 17,7 km/h (3 Bft)
12.08.2014 03:04 14,3 C 12,8 C 89 % 1010,8 hPa 0,0 l/m 0 min 0 min 0,0 UV-I 0 W/m 28,2 km/h (4 Bft)
12.08.2014 03:06 14,2 C 12,8 C 89 % 1010,7 hPa 0,0 l/m 0 min 0 min 0,0 UV-I 0 W/m 24,7 km/h (4 Bft)
12.08.2014 03:08 14,2 C 12,8 C 89 % 1010,7 hPa 0,0 l/m 0 min 0 min 0,0 UV-I 0 W/m 28,2 km/h (4 Bft)
12.08.2014 03:10 14,2 C 12,8 C 90 % 1010,7 hPa 0,0 l/m 0 min 0 min 0,0 UV-I 0 W/m 31,7 km/h (5 Bft)
12.08.2014 03:12 14,2 C 12,8 C 90 % 1010,7 hPa 0,0 l/m 0 min 0 min 0,0 UV-I 0 W/m 28,2 km/h (4 Bft)
12.08.2014 03:14 14,2 C 12,8 C 90 % 1010,7 hPa 0,0 l/m 0 min 0 min 0,0 UV-I 0 W/m 31,7 km/h (5 Bft)
12.08.2014 03:16 14,2 C 12,8 C 90 % 1010,7 hPa 0,0 l/m 0 min 0 min 0,0 UV-I 0 W/m 24,7 km/h (4 Bft)
12.08.2014 03:18 14,2 C 12,8 C 90 % 1010,7 hPa 0,0 l/m 0 min 0 min 0,0 UV-I 0 W/m 31,7 km/h (5 Bft)
12.08.2014 03:20 14,2 C 12,8 C 90 % 1010,8 hPa 0,0 l/m 0 min 0 min 0,0 UV-I 0 W/m 28,2 km/h (4 Bft)
12.08.2014 03:22 14,2 C 12,8 C 90 % 1010,8 hPa 0,0 l/m 0 min 0 min 0,0 UV-I 0 W/m 38,9 km/h (6 Bft)
12.08.2014 03:24 14,2 C 12,8 C 89 % 1010,8 hPa 0,0 l/m 0 min 0 min 0,0 UV-I 0 W/m 28,2 km/h (4 Bft)
12.08.2014 03:26 14,2 C 12,8 C 89 % 1010,7 hPa 0,0 l/m 0 min 0 min 0,0 UV-I 0 W/m 28,2 km/h (4 Bft)
12.08.2014 03:28 14,3 C 13,3 C 89 % 1010,8 hPa 0,0 l/m 0 min 0 min 0,0 UV-I 0 W/m 42,4 km/h (6 Bft)
12.08.2014 03:30 14,3 C 13,3 C 89 % 1010,8 hPa 0,0 l/m 0 min 0 min 0,0 UV-I 0 W/m 38,9 km/h (6 Bft)
12.08.2014 03:32 14,3 C 13,3 C 89 % 1010,7 hPa 0,0 l/m 0 min 0 min 0,0 UV-I 0 W/m 21,3 km/h (4 Bft)
12.08.2014 03:34 14,3 C 13,3 C 89 % 1010,7 hPa 0,0 l/m 0 min 0 min 0,0 UV-I 0 W/m 35,4 km/h (5 Bft)
12.08.2014 03:36 14,3 C 13,3 C 89 % 1010,7 hPa 0,0 l/m 0 min 0 min 0,0 UV-I 0 W/m 24,7 km/h (4 Bft)
12.08.2014 03:38 14,3 C 13,3 C 89 % 1010,7 hPa 0,0 l/m 0 min 0 min 0,0 UV-I 0 W/m 38,9 km/h (6 Bft)
12.08.2014 03:40 14,3 C 12,8 C 89 % 1010,7 hPa 0,0 l/m 0 min 0 min 0,0 UV-I 0 W/m 42,4 km/h (6 Bft)
12.08.2014 03:42 14,3 C 12,8 C 89 % 1010,7 hPa 0,0 l/m 0 min 0 min 0,0 UV-I 0 W/m 38,9 km/h (6 Bft)
12.08.2014 03:44 14,3 C 12,8 C 89 % 1010,8 hPa 0,0 l/m 0 min 0 min 0,0 UV-I 0 W/m 28,2 km/h (4 Bft)
12.08.2014 03:46 14,3 C 12,8 C 89 % 1010,8 hPa 0,0 l/m 0 min 0 min 0,0 UV-I 0 W/m 28,2 km/h (4 Bft)
12.08.2014 03:48 14,2 C 12,8 C 89 % 1010,7 hPa 0,0 l/m 0 min 0 min 0,0 UV-I 0 W/m 31,7 km/h (5 Bft)
12.08.2014 03:50 14,2 C 12,8 C 89 % 1010,7 hPa 0,0 l/m 0 min 0 min 0,0 UV-I 0 W/m 35,4 km/h (5 Bft)
12.08.2014 03:52 14,2 C 12,8 C 89 % 1010,8 hPa 0,0 l/m 0 min 0 min 0,0 UV-I 0 W/m 38,9 km/h (6 Bft)
12.08.2014 03:54 14,2 C 12,8 C 89 % 1010,8 hPa 0,0 l/m 0 min 0 min 0,0 UV-I 0 W/m 28,2 km/h (4 Bft)
12.08.2014 03:56 14,2 C 12,8 C 89 % 1010,7 hPa 0,0 l/m 0 min 0 min 0,0 UV-I 0 W/m 28,2 km/h (4 Bft)
12.08.2014 03:58 14,2 C 12,8 C 89 % 1010,7 hPa 0,0 l/m 0 min 0 min 0,0 UV-I 0 W/m 24,7 km/h (4 Bft)
12.08.2014 04:00 14,2 C 12,8 C 89 % 1010,7 hPa 0,0 l/m 0 min 0 min 0,0 UV-I 0 W/m 31,7 km/h (5 Bft)
12.08.2014 04:02 14,2 C 12,8 C 89 % 1010,7 hPa 0,0 l/m 0 min 0 min 0,0 UV-I 0 W/m 35,4 km/h (5 Bft)
12.08.2014 04:04 14,2 C 12,8 C 89 % 1010,7 hPa 0,0 l/m 0 min 0 min 0,0 UV-I 0 W/m 24,7 km/h (4 Bft)
12.08.2014 04:06 14,2 C 12,8 C 89 % 1010,7 hPa 0,0 l/m 0 min 0 min 0,0 UV-I 0 W/m 24,7 km/h (4 Bft)
12.08.2014 04:08 14,2 C 12,8 C 89 % 1010,7 hPa 0,0 l/m 0 min 0 min 0,0 UV-I 0 W/m 21,3 km/h (4 Bft)
12.08.2014 04:10 14,1 C 12,8 C 89 % 1010,7 hPa 0,0 l/m 0 min 0 min 0,0 UV-I 0 W/m 21,3 km/h (4 Bft)
12.08.2014 04:12 14,1 C 12,8 C 89 % 1010,7 hPa 0,0 l/m 0 min 0 min 0,0 UV-I 0 W/m 31,7 km/h (5 Bft)
12.08.2014 04:14 14,1 C 12,8 C 89 % 1010,7 hPa 0,0 l/m 0 min 0 min 0,0 UV-I 0 W/m 28,2 km/h (4 Bft)
12.08.2014 04:16 14,1 C 12,8 C 89 % 1010,7 hPa 0,0 l/m 0 min 0 min 0,0 UV-I 0 W/m 21,3 km/h (4 Bft)
12.08.2014 04:18 14,0 C 12,8 C 89 % 1010,7 hPa 0,0 l/m 0 min 0 min 0,0 UV-I 0 W/m 17,7 km/h (3 Bft)
12.08.2014 04:20 14,0 C 12,8 C 89 % 1010,6 hPa 0,0 l/m 0 min 0 min 0,0 UV-I 0 W/m 46,0 km/h (6 Bft)
12.08.2014 04:22 14,0 C 12,8 C 90 % 1010,6 hPa 0,0 l/m 0 min 0 min 0,0 UV-I 0 W/m 35,4 km/h (5 Bft)
12.08.2014 04:24 14,0 C 12,8 C 90 % 1010,6 hPa 0,0 l/m 0 min 0 min 0,0 UV-I 0 W/m 31,7 km/h (5 Bft)
12.08.2014 04:26 14,0 C 12,8 C 90 % 1010,7 hPa 0,0 l/m 0 min 0 min 0,0 UV-I 0 W/m 42,4 km/h (6 Bft)
12.08.2014 04:28 14,1 C 12,8 C 90 % 1010,6 hPa 0,0 l/m 0 min 0 min 0,0 UV-I 0 W/m 42,4 km/h (6 Bft)
12.08.2014 04:30 14,0 C 12,8 C 89 % 1010,6 hPa 0,0 l/m 0 min 0 min 0,0 UV-I 0 W/m 38,9 km/h (6 Bft)
12.08.2014 04:32 14,0 C 12,8 C 89 % 1010,6 hPa 0,0 l/m 0 min 0 min 0,0 UV-I 0 W/m 28,2 km/h (4 Bft)
12.08.2014 04:34 14,0 C 12,8 C 89 % 1010,5 hPa 0,0 l/m 0 min 0 min 0,0 UV-I 0 W/m 31,7 km/h (5 Bft)
12.08.2014 04:36 13,9 C 12,8 C 90 % 1010,5 hPa 0,0 l/m 0 min 0 min 0,0 UV-I 0 W/m 35,4 km/h (5 Bft)
12.08.2014 04:38 13,9 C 12,8 C 90 % 1010,5 hPa 0,0 l/m 0 min 0 min 0,0 UV-I 0 W/m 24,7 km/h (4 Bft)
12.08.2014 04:40 13,9 C 12,8 C 90 % 1010,5 hPa 0,0 l/m 0 min 0 min 0,0 UV-I 0 W/m 31,7 km/h (5 Bft)
12.08.2014 04:42 13,9 C 12,8 C 90 % 1010,5 hPa 0,0 l/m 0 min 0 min 0,0 UV-I 0 W/m 24,7 km/h (4 Bft)
12.08.2014 04:44 13,9 C 12,8 C 90 % 1010,5 hPa 0,0 l/m 0 min 0 min 0,0 UV-I 0 W/m 24,7 km/h (4 Bft)
12.08.2014 04:46 13,8 C 12,8 C 90 % 1010,6 hPa 0,0 l/m 0 min 0 min 0,0 UV-I 0 W/m 28,2 km/h (4 Bft)
12.08.2014 04:48 13,8 C 12,8 C 90 % 1010,5 hPa 0,0 l/m 0 min 0 min 0,0 UV-I 0 W/m 31,7 km/h (5 Bft)
12.08.2014 04:50 13,8 C 12,8 C 90 % 1010,5 hPa 0,0 l/m 0 min 0 min 0,0 UV-I 0 W/m 38,9 km/h (6 Bft)
12.08.2014 04:52 13,8 C 12,8 C 90 % 1010,5 hPa 0,0 l/m 0 min 0 min 0,0 UV-I 0 W/m 24,7 km/h (4 Bft)
12.08.2014 04:54 13,8 C 12,8 C 90 % 1010,5 hPa 0,0 l/m 0 min 0 min 0,0 UV-I 0 W/m 35,4 km/h (5 Bft)
12.08.2014 04:56 13,8 C 12,8 C 90 % 1010,6 hPa 0,0 l/m 0 min 0 min 0,0 UV-I 0 W/m 24,7 km/h (4 Bft)
12.08.2014 04:58 13,8 C 12,8 C 90 % 1010,6 hPa 0,0 l/m 0 min 0 min 0,0 UV-I 0 W/m 31,7 km/h (5 Bft)
12.08.2014 05:00 13,8 C 12,8 C 90 % 1010,5 hPa 0,0 l/m 0 min 0 min 0,0 UV-I 0 W/m 28,2 km/h (4 Bft)
12.08.2014 05:02 13,8 C 12,8 C 90 % 1010,5 hPa 0,0 l/m 0 min 0 min 0,0 UV-I 0 W/m 31,7 km/h (5 Bft)
12.08.2014 05:04 13,8 C 12,8 C 91 % 1010,4 hPa 0,0 l/m 0 min 0 min 0,0 UV-I 0 W/m 24,7 km/h (4 Bft)
12.08.2014 05:06 13,8 C 12,8 C 91 % 1010,5 hPa 0,0 l/m 0 min 0 min 0,0 UV-I 0 W/m 38,9 km/h (6 Bft)
12.08.2014 05:08 13,8 C 12,8 C 91 % 1010,5 hPa 0,0 l/m 0 min 0 min 0,0 UV-I 0 W/m 35,4 km/h (5 Bft)
12.08.2014 05:10 13,8 C 12,8 C 91 % 1010,4 hPa 0,0 l/m 0 min 0 min 0,0 UV-I 0 W/m 31,7 km/h (5 Bft)
12.08.2014 05:12 13,8 C 12,8 C 91 % 1010,5 hPa 0,0 l/m 0 min 0 min 0,0 UV-I 0 W/m 28,2 km/h (4 Bft)
12.08.2014 05:14 13,8 C 12,8 C 91 % 1010,4 hPa 0,0 l/m 0 min 0 min 0,0 UV-I 0 W/m 28,2 km/h (4 Bft)
12.08.2014 05:16 13,8 C 12,8 C 91 % 1010,4 hPa 0,0 l/m 0 min 0 min 0,0 UV-I 0 W/m 38,9 km/h (6 Bft)
12.08.2014 05:18 13,8 C 12,8 C 91 % 1010,4 hPa 0,0 l/m 0 min 0 min 0,0 UV-I 0 W/m 31,7 km/h (5 Bft)
12.08.2014 05:20 13,7 C 12,8 C 91 % 1010,4 hPa 0,0 l/m 0 min 0 min 0,0 UV-I 0 W/m 28,2 km/h (4 Bft)
12.08.2014 05:22 13,7 C 12,2 C 91 % 1010,4 hPa 0,0 l/m 0 min 0 min 0,0 UV-I 0 W/m 24,7 km/h (4 Bft)
12.08.2014 05:24 13,7 C 12,2 C 91 % 1010,4 hPa 0,0 l/m 0 min 0 min 0,0 UV-I 0 W/m 24,7 km/h (4 Bft)
12.08.2014 05:26 13,7 C 12,2 C 91 % 1010,5 hPa 0,0 l/m 0 min 0 min 0,0 UV-I 0 W/m 24,7 km/h (4 Bft)
12.08.2014 05:28 13,7 C 12,2 C 91 % 1010,4 hPa 0,0 l/m 0 min 0 min 0,0 UV-I 0 W/m 49,5 km/h (6 Bft)
12.08.2014 05:30 13,7 C 12,8 C 91 % 1010,5 hPa 0,0 l/m 0 min 0 min 0,0 UV-I 0 W/m 42,4 km/h (6 Bft)
12.08.2014 05:32 13,7 C 12,2 C 91 % 1010,4 hPa 0,0 l/m 0 min 0 min 0,0 UV-I 0 W/m 21,3 km/h (4 Bft)
12.08.2014 05:34 13,7 C 12,2 C 91 % 1010,4 hPa 0,0 l/m 0 min 0 min 0,0 UV-I 0 W/m 17,7 km/h (3 Bft)
12.08.2014 05:36 13,7 C 12,2 C 91 % 1010,4 hPa 0,0 l/m 0 min 0 min 0,0 UV-I 0 W/m 31,7 km/h (5 Bft)
12.08.2014 05:38 13,7 C 12,2 C 91 % 1010,4 hPa 0,0 l/m 0 min 0 min 0,0 UV-I 0 W/m 24,7 km/h (4 Bft)
12.08.2014 05:40 13,7 C 12,2 C 91 % 1010,4 hPa 0,0 l/m 0 min 0 min 0,0 UV-I 0 W/m 28,2 km/h (4 Bft)
12.08.2014 05:42 13,7 C 12,2 C 91 % 1010,4 hPa 0,0 l/m 0 min 0 min 0,0 UV-I 0 W/m 24,7 km/h (4 Bft)
12.08.2014 05:44 13,7 C 12,2 C 91 % 1010,4 hPa 0,0 l/m 0 min 0 min 0,0 UV-I 0 W/m 21,3 km/h (4 Bft)
12.08.2014 05:46 13,6 C 12,2 C 91 % 1010,4 hPa 0,0 l/m 0 min 0 min 0,0 UV-I 0 W/m 21,3 km/h (4 Bft)
12.08.2014 05:48 13,6 C 12,2 C 91 % 1010,3 hPa 0,0 l/m 0 min 0 min 0,0 UV-I 0 W/m 28,2 km/h (4 Bft)
12.08.2014 05:50 13,6 C 12,2 C 91 % 1010,4 hPa 0,0 l/m 0 min 0 min 0,0 UV-I 0 W/m 24,7 km/h (4 Bft)
12.08.2014 05:52 13,6 C 12,2 C 91 % 1010,4 hPa 0,0 l/m 0 min 0 min 0,0 UV-I 0 W/m 28,2 km/h (4 Bft)
12.08.2014 05:54 13,6 C 12,2 C 91 % 1010,4 hPa 0,0 l/m 0 min 0 min 0,0 UV-I 0 W/m 28,2 km/h (4 Bft)
12.08.2014 05:56 13,6 C 12,2 C 91 % 1010,3 hPa 0,0 l/m 0 min 0 min 0,0 UV-I 0 W/m 24,7 km/h (4 Bft)
12.08.2014 05:58 13,6 C 12,2 C 91 % 1010,3 hPa 0,0 l/m 0 min 0 min 0,0 UV-I 0 W/m 21,3 km/h (4 Bft)
12.08.2014 06:00 13,5 C 12,2 C 91 % 1010,3 hPa 0,0 l/m 0 min 0 min 0,0 UV-I 0 W/m 28,2 km/h (4 Bft)
12.08.2014 06:02 13,5 C 12,2 C 91 % 1010,3 hPa 0,0 l/m 0 min 0 min 0,0 UV-I 0 W/m 24,7 km/h (4 Bft)
12.08.2014 06:05 13,4 C 12,2 C 91 % 1010,3 hPa 0,0 l/m 0 min 0 min 0,0 UV-I 0 W/m 24,7 km/h (4 Bft)
12.08.2014 06:06 13,4 C 12,2 C 91 % 1010,3 hPa 0,0 l/m 0 min 0 min 0,0 UV-I 0 W/m 24,7 km/h (4 Bft)
12.08.2014 06:08 13,4 C 12,2 C 92 % 1010,3 hPa 0,0 l/m 0 min 0 min 0,0 UV-I 0 W/m 28,2 km/h (4 Bft)
12.08.2014 06:10 13,4 C 12,2 C 92 % 1010,3 hPa 0,0 l/m 0 min 0 min 0,0 UV-I 0 W/m 38,9 km/h (6 Bft)
12.08.2014 06:12 13,4 C 12,2 C 92 % 1010,3 hPa 0,0 l/m 0 min 0 min 0,0 UV-I 0 W/m 28,2 km/h (4 Bft)
12.08.2014 06:14 13,4 C 12,2 C 92 % 1010,3 hPa 0,0 l/m 0 min 0 min 0,0 UV-I 0 W/m 28,2 km/h (4 Bft)
12.08.2014 06:16 13,4 C 12,2 C 92 % 1010,3 hPa 0,0 l/m 0 min 0 min 0,0 UV-I 0 W/m 24,7 km/h (4 Bft)
12.08.2014 06:18 13,4 C 12,2 C 92 % 1010,4 hPa 0,0 l/m 0 min 0 min 0,0 UV-I 0 W/m 24,7 km/h (4 Bft)
12.08.2014 06:20 13,4 C 12,2 C 92 % 1010,4 hPa 0,0 l/m 0 min 0 min 0,0 UV-I 0 W/m 31,7 km/h (5 Bft)
12.08.2014 06:22 13,3 C 12,2 C 92 % 1010,3 hPa 0,0 l/m 0 min 0 min 0,0 UV-I 8 W/m 24,7 km/h (4 Bft)
12.08.2014 06:24 13,3 C 12,2 C 92 % 1010,3 hPa 0,0 l/m 0 min 0 min 0,0 UV-I 9 W/m 21,3 km/h (4 Bft)
12.08.2014 06:26 13,3 C 12,2 C 92 % 1010,3 hPa 0,0 l/m 0 min 0 min 0,0 UV-I 11 W/m 42,4 km/h (6 Bft)
12.08.2014 06:28 13,3 C 12,2 C 92 % 1010,4 hPa 0,0 l/m 0 min 0 min 0,0 UV-I 12 W/m 31,7 km/h (5 Bft)
12.08.2014 06:30 13,4 C 12,2 C 92 % 1010,4 hPa 0,0 l/m 2 min 0 min 0,0 UV-I 13 W/m 28,2 km/h (4 Bft)
12.08.2014 06:32 13,4 C 12,2 C 92 % 1010,4 hPa 0,0 l/m 2 min 0 min 0,0 UV-I 15 W/m 17,7 km/h (3 Bft)
12.08.2014 06:34 13,3 C 12,2 C 92 % 1010,4 hPa 0,0 l/m 2 min 0 min 0,0 UV-I 17 W/m 28,2 km/h (4 Bft)
12.08.2014 06:36 13,4 C 12,2 C 92 % 1010,5 hPa 0,0 l/m 2 min 0 min 0,0 UV-I 19 W/m 31,7 km/h (5 Bft)
12.08.2014 06:38 13,3 C 12,2 C 92 % 1010,4 hPa 0,0 l/m 0 min 0 min 0,0 UV-I 20 W/m 21,3 km/h (4 Bft)
12.08.2014 06:40 13,3 C 12,2 C 92 % 1010,6 hPa 0,0 l/m 0 min 0 min 0,0 UV-I 22 W/m 28,2 km/h (4 Bft)
12.08.2014 06:42 13,3 C 12,2 C 92 % 1010,5 hPa 0,0 l/m 0 min 0 min 0,0 UV-I 24 W/m 24,7 km/h (4 Bft)
12.08.2014 06:44 13,3 C 12,2 C 92 % 1010,5 hPa 0,0 l/m 0 min 0 min 0,0 UV-I 26 W/m 28,2 km/h (4 Bft)
12.08.2014 06:46 13,3 C 12,2 C 92 % 1010,4 hPa 0,0 l/m 0 min 0 min 0,0 UV-I 29 W/m 21,3 km/h (4 Bft)
12.08.2014 06:48 13,4 C 12,2 C 92 % 1010,5 hPa 0,0 l/m 2 min 0 min 0,0 UV-I 36 W/m 31,7 km/h (5 Bft)
12.08.2014 06:50 13,4 C 12,2 C 92 % 1010,5 hPa 0,0 l/m 2 min 0 min 0,0 UV-I 43 W/m 28,2 km/h (4 Bft)
12.08.2014 06:52 13,4 C 12,2 C 92 % 1010,5 hPa 0,0 l/m 2 min 0 min 0,0 UV-I 48 W/m 24,7 km/h (4 Bft)
12.08.2014 06:54 13,4 C 12,2 C 92 % 1010,4 hPa 0,0 l/m 2 min 0 min 0,0 UV-I 51 W/m 28,2 km/h (4 Bft)
12.08.2014 06:56 13,4 C 12,2 C 92 % 1010,4 hPa 0,0 l/m 2 min 0 min 0,0 UV-I 54 W/m 24,7 km/h (4 Bft)
12.08.2014 06:58 13,4 C 12,2 C 92 % 1010,5 hPa 0,0 l/m 2 min 0 min 0,0 UV-I 60 W/m 28,2 km/h (4 Bft)
12.08.2014 07:00 13,5 C 12,2 C 92 % 1010,5 hPa 0,0 l/m 2 min 0 min 0,0 UV-I 66 W/m 17,7 km/h (3 Bft)
12.08.2014 07:02 13,4 C 12,2 C 92 % 1010,4 hPa 0,0 l/m 2 min 0 min 0,0 UV-I 70 W/m 24,7 km/h (4 Bft)
12.08.2014 07:04 13,5 C 12,2 C 92 % 1010,5 hPa 0,0 l/m 2 min 0 min 0,0 UV-I 77 W/m 35,4 km/h (5 Bft)
12.08.2014 07:06 13,5 C 12,2 C 92 % 1010,5 hPa 0,0 l/m 2 min 0 min 0,0 UV-I 83 W/m 24,7 km/h (4 Bft)
12.08.2014 07:08 13,5 C 12,2 C 92 % 1010,5 hPa 0,0 l/m 2 min 0 min 0,0 UV-I 88 W/m 17,7 km/h (3 Bft)
12.08.2014 07:10 13,5 C 12,2 C 92 % 1010,5 hPa 0,0 l/m 2 min 0 min 0,0 UV-I 94 W/m 38,9 km/h (6 Bft)
12.08.2014 07:12 13,5 C 12,2 C 92 % 1010,6 hPa 0,0 l/m 2 min 0 min 0,0 UV-I 99 W/m 21,3 km/h (4 Bft)
12.08.2014 07:14 13,6 C 12,2 C 92 % 1010,7 hPa 0,0 l/m 2 min 0 min 0,0 UV-I 104 W/m 10,7 km/h (2 Bft)
12.08.2014 07:16 13,6 C 12,8 C 92 % 1010,7 hPa 0,0 l/m 2 min 0 min 0,0 UV-I 112 W/m 21,3 km/h (4 Bft)
12.08.2014 07:18 13,6 C 12,8 C 92 % 1010,7 hPa 0,0 l/m 2 min 0 min 0,0 UV-I 120 W/m 24,7 km/h (4 Bft)
12.08.2014 07:20 13,7 C 12,8 C 92 % 1010,7 hPa 0,0 l/m 2 min 0 min 0,0 UV-I 126 W/m 28,2 km/h (4 Bft)
12.08.2014 07:22 13,7 C 12,8 C 92 % 1010,8 hPa 0,0 l/m 2 min 0 min 0,0 UV-I 134 W/m 31,7 km/h (5 Bft)
12.08.2014 07:24 13,7 C 12,8 C 92 % 1010,8 hPa 0,0 l/m 2 min 0 min 0,0 UV-I 152 W/m 35,4 km/h (5 Bft)
12.08.2014 07:26 13,8 C 12,8 C 91 % 1010,9 hPa 0,0 l/m 2 min 0 min 0,0 UV-I 159 W/m 35,4 km/h (5 Bft)
12.08.2014 07:28 13,9 C 12,8 C 91 % 1010,9 hPa 0,0 l/m 2 min 0 min 0,0 UV-I 164 W/m 24,7 km/h (4 Bft)
12.08.2014 07:30 13,9 C 12,8 C 91 % 1010,9 hPa 0,0 l/m 2 min 0 min 0,0 UV-I 170 W/m 31,7 km/h (5 Bft)
12.08.2014 07:32 14,1 C 12,8 C 91 % 1010,9 hPa 0,0 l/m 2 min 0 min 0,0 UV-I 165 W/m 14,2 km/h (3 Bft)
12.08.2014 07:34 14,1 C 12,8 C 91 % 1010,9 hPa 0,0 l/m 2 min 0 min 0,0 UV-I 153 W/m 31,7 km/h (5 Bft)
12.08.2014 07:36 14,1 C 12,8 C 91 % 1010,9 hPa 0,0 l/m 2 min 0 min 0,0 UV-I 157 W/m 28,2 km/h (4 Bft)
12.08.2014 07:38 14,2 C 12,8 C 90 % 1011,0 hPa 0,0 l/m 2 min 0 min 0,0 UV-I 168 W/m 24,7 km/h (4 Bft)
12.08.2014 07:40 14,2 C 12,8 C 90 % 1010,9 hPa 0,0 l/m 2 min 0 min 0,0 UV-I 136 W/m 17,7 km/h (3 Bft)
12.08.2014 07:42 14,2 C 12,8 C 90 % 1010,9 hPa 0,0 l/m 0 min 0 min 0,0 UV-I 59 W/m 38,9 km/h (6 Bft)
12.08.2014 07:44 14,2 C 12,8 C 90 % 1010,9 hPa 0,0 l/m 2 min 0 min 0,0 UV-I 133 W/m 24,7 km/h (4 Bft)
12.08.2014 07:46 14,2 C 12,8 C 90 % 1010,9 hPa 0,0 l/m 0 min 0 min 0,0 UV-I 91 W/m 46,0 km/h (6 Bft)
12.08.2014 07:48 14,2 C 12,8 C 90 % 1010,9 hPa 0,0 l/m 0 min 0 min 0,0 UV-I 97 W/m 24,7 km/h (4 Bft)
12.08.2014 07:50 14,2 C 12,8 C 90 % 1010,9 hPa 0,0 l/m 2 min 0 min 0,0 UV-I 165 W/m 28,2 km/h (4 Bft)
12.08.2014 07:52 14,2 C 12,8 C 90 % 1010,9 hPa 0,0 l/m 2 min 0 min 0,0 UV-I 204 W/m 28,2 km/h (4 Bft)
12.08.2014 07:54 14,2 C 12,8 C 90 % 1010,9 hPa 0,0 l/m 2 min 0 min 0,0 UV-I 204 W/m 35,4 km/h (5 Bft)
12.08.2014 07:56 14,2 C 12,8 C 90 % 1010,9 hPa 0,0 l/m 2 min 0 min 0,0 UV-I 212 W/m 28,2 km/h (4 Bft)
12.08.2014 07:58 14,2 C 13,3 C 90 % 1010,8 hPa 0,0 l/m 2 min 0 min 0,0 UV-I 216 W/m 35,4 km/h (5 Bft)
12.08.2014 08:00 14,2 C 13,3 C 90 % 1010,9 hPa 0,0 l/m 2 min 0 min 0,0 UV-I 224 W/m 49,5 km/h (6 Bft)
12.08.2014 08:02 14,2 C 13,3 C 89 % 1010,9 hPa 0,0 l/m 2 min 0 min 0,0 UV-I 229 W/m 38,9 km/h (6 Bft)
12.08.2014 08:04 14,3 C 13,3 C 89 % 1010,9 hPa 0,0 l/m 2 min 0 min 0,0 UV-I 236 W/m 31,7 km/h (5 Bft)
12.08.2014 08:06 14,4 C 13,3 C 89 % 1010,9 hPa 0,0 l/m 2 min 0 min 0,0 UV-I 241 W/m 42,4 km/h (6 Bft)
12.08.2014 08:08 14,4 C 13,3 C 89 % 1010,9 hPa 0,0 l/m 2 min 0 min 0,0 UV-I 244 W/m 49,5 km/h (6 Bft)
12.08.2014 08:10 14,5 C 13,3 C 89 % 1011,0 hPa 0,0 l/m 2 min 0 min 0,0 UV-I 246 W/m 28,2 km/h (4 Bft)
12.08.2014 08:12 14,5 C 13,3 C 89 % 1011,0 hPa 0,0 l/m 2 min 0 min 0,0 UV-I 253 W/m 46,0 km/h (6 Bft)
12.08.2014 08:14 14,6 C 13,3 C 89 % 1011,0 hPa 0,0 l/m 2 min 0 min 0,0 UV-I 258 W/m 31,7 km/h (5 Bft)
12.08.2014 08:16 14,6 C 13,3 C 88 % 1011,0 hPa 0,0 l/m 2 min 0 min 0,0 UV-I 260 W/m 49,5 km/h (6 Bft)
12.08.2014 08:18 14,7 C 13,3 C 88 % 1011,0 hPa 0,0 l/m 2 min 0 min 0,0 UV-I 266 W/m 35,4 km/h (5 Bft)
12.08.2014 08:20 14,7 C 13,3 C 88 % 1011,0 hPa 0,0 l/m 2 min 0 min 0,0 UV-I 274 W/m 21,3 km/h (4 Bft)
12.08.2014 08:22 14,7 C 13,3 C 88 % 1011,0 hPa 0,0 l/m 2 min 0 min 0,0 UV-I 280 W/m 42,4 km/h (6 Bft)
12.08.2014 08:24 14,8 C 13,3 C 88 % 1011,0 hPa 0,0 l/m 2 min 0 min 0,0 UV-I 291 W/m 42,4 km/h (6 Bft)
12.08.2014 08:26 14,8 C 13,9 C 88 % 1011,0 hPa 0,0 l/m 2 min 0 min 0,0 UV-I 292 W/m 42,4 km/h (6 Bft)
12.08.2014 08:28 14,9 C 13,9 C 88 % 1011,0 hPa 0,0 l/m 2 min 0 min 0,0 UV-I 297 W/m 38,9 km/h (6 Bft)
12.08.2014 08:30 14,9 C 13,9 C 87 % 1011,0 hPa 0,0 l/m 2 min 0 min 0,0 UV-I 296 W/m 35,4 km/h (5 Bft)
12.08.2014 08:32 14,9 C 13,9 C 87 % 1011,0 hPa 0,0 l/m 2 min 0 min 0,0 UV-I 306 W/m 42,4 km/h (6 Bft)
12.08.2014 08:34 15,0 C 13,9 C 87 % 1011,1 hPa 0,0 l/m 2 min 0 min 0,0 UV-I 321 W/m 56,5 km/h (7 Bft)
12.08.2014 08:36 15,1 C 13,9 C 87 % 1011,1 hPa 0,0 l/m 2 min 0 min 0,0 UV-I 327 W/m 35,4 km/h (5 Bft)
12.08.2014 08:38 15,1 C 13,9 C 87 % 1011,0 hPa 0,0 l/m 2 min 0 min 0,0 UV-I 328 W/m 21,3 km/h (4 Bft)
12.08.2014 08:40 15,2 C 13,9 C 87 % 1011,0 hPa 0,0 l/m 2 min 0 min 0,0 UV-I 294 W/m 46,0 km/h (6 Bft)
12.08.2014 08:42 15,2 C 13,9 C 86 % 1011,0 hPa 0,0 l/m 2 min 0 min 0,0 UV-I 319 W/m 49,5 km/h (6 Bft)
12.08.2014 08:44 15,2 C 13,9 C 86 % 1011,0 hPa 0,0 l/m 2 min 0 min 0,0 UV-I 332 W/m 42,4 km/h (6 Bft)
12.08.2014 08:46 15,3 C 13,9 C 86 % 1011,0 hPa 0,0 l/m 2 min 0 min 0,0 UV-I 335 W/m 31,7 km/h (5 Bft)
12.08.2014 08:48 15,3 C 13,9 C 86 % 1011,1 hPa 0,0 l/m 2 min 0 min 0,0 UV-I 345 W/m 46,0 km/h (6 Bft)
12.08.2014 08:50 15,4 C 13,9 C 86 % 1011,1 hPa 0,0 l/m 2 min 0 min 0,0 UV-I 339 W/m 35,4 km/h (5 Bft)
12.08.2014 08:52 15,4 C 13,9 C 86 % 1011,1 hPa 0,0 l/m 2 min 0 min 0,0 UV-I 348 W/m 35,4 km/h (5 Bft)
12.08.2014 08:54 15,5 C 14,4 C 86 % 1011,1 hPa 0,0 l/m 2 min 0 min 0,0 UV-I 382 W/m 28,2 km/h (4 Bft)
12.08.2014 08:56 15,6 C 14,4 C 85 % 1011,0 hPa 0,0 l/m 2 min 0 min 0,0 UV-I 419 W/m 28,2 km/h (4 Bft)
12.08.2014 08:58 15,6 C 14,4 C 85 % 1011,1 hPa 0,0 l/m 2 min 0 min 0,0 UV-I 351 W/m 35,4 km/h (5 Bft)
12.08.2014 09:00 15,7 C 14,4 C 85 % 1011,1 hPa 0,0 l/m 2 min 0 min 0,2 UV-I 278 W/m 31,7 km/h (5 Bft)
12.08.2014 09:02 15,8 C 14,4 C 85 % 1011,1 hPa 0,0 l/m 2 min 0 min 0,4 UV-I 390 W/m 31,7 km/h (5 Bft)
12.08.2014 09:04 15,8 C 14,4 C 84 % 1011,1 hPa 0,0 l/m 2 min 0 min 0,0 UV-I 284 W/m 49,5 km/h (6 Bft)
12.08.2014 09:06 15,9 C 14,4 C 84 % 1011,1 hPa 0,0 l/m 2 min 0 min 0,5 UV-I 300 W/m 46,0 km/h (6 Bft)
12.08.2014 09:08 15,9 C 14,4 C 84 % 1011,1 hPa 0,0 l/m 2 min 0 min 0,5 UV-I 459 W/m 46,0 km/h (6 Bft)
12.08.2014 09:10 16,0 C 14,4 C 83 % 1011,1 hPa 0,0 l/m 2 min 0 min 0,2 UV-I 274 W/m 56,5 km/h (7 Bft)
12.08.2014 09:12 16,1 C 15,0 C 83 % 1011,2 hPa 0,0 l/m 2 min 0 min 0,1 UV-I 219 W/m 49,5 km/h (6 Bft)
12.08.2014 09:14 16,1 C 14,4 C 83 % 1011,1 hPa 0,0 l/m 0 min 0 min 0,0 UV-I 114 W/m 49,5 km/h (6 Bft)
12.08.2014 09:16 16,1 C 15,0 C 82 % 1011,1 hPa 0,0 l/m 2 min 0 min 0,5 UV-I 282 W/m 49,5 km/h (6 Bft)
12.08.2014 09:18 16,2 C 15,0 C 82 % 1011,1 hPa 0,0 l/m 2 min 0 min 0,8 UV-I 526 W/m 35,4 km/h (5 Bft)
12.08.2014 09:20 16,3 C 15,0 C 82 % 1011,2 hPa 0,0 l/m 2 min 0 min 0,3 UV-I 407 W/m 49,5 km/h (6 Bft)
12.08.2014 09:22 16,3 C 15,0 C 81 % 1011,2 hPa 0,0 l/m 0 min 0 min 0,2 UV-I 124 W/m 60,2 km/h (7 Bft)
12.08.2014 09:24 16,3 C 15,0 C 81 % 1011,2 hPa 0,0 l/m 2 min 0 min 0,8 UV-I 339 W/m 38,9 km/h (6 Bft)
12.08.2014 09:26 16,4 C 15,0 C 81 % 1011,2 hPa 0,0 l/m 2 min 0 min 0,7 UV-I 456 W/m 38,9 km/h (6 Bft)
12.08.2014 09:28 16,5 C 15,0 C 81 % 1011,2 hPa 0,0 l/m 2 min 0 min 0,7 UV-I 483 W/m 46,0 km/h (6 Bft)
12.08.2014 09:30 16,6 C 15,0 C 81 % 1011,2 hPa 0,0 l/m 2 min 0 min 0,5 UV-I 520 W/m 56,5 km/h (7 Bft)
12.08.2014 09:32 16,6 C 15,0 C 80 % 1011,2 hPa 0,0 l/m 2 min 0 min 0,5 UV-I 281 W/m 49,5 km/h (6 Bft)
12.08.2014 09:34 16,6 C 15,0 C 81 % 1011,2 hPa 0,0 l/m 2 min 0 min 1,0 UV-I 324 W/m 49,5 km/h (6 Bft)
12.08.2014 09:36 16,7 C 15,6 C 81 % 1011,2 hPa 0,0 l/m 2 min 0 min 0,5 UV-I 544 W/m 28,2 km/h (4 Bft)
12.08.2014 09:38 16,7 C 15,6 C 80 % 1011,2 hPa 0,0 l/m 2 min 0 min 0,0 UV-I 254 W/m 53,0 km/h (7 Bft)
12.08.2014 09:40 16,7 C 15,6 C 80 % 1011,1 hPa 0,0 l/m 0 min 0 min 0,6 UV-I 131 W/m 31,7 km/h (5 Bft)
12.08.2014 09:42 16,6 C 16,1 C 80 % 1011,1 hPa 0,0 l/m 0 min 0 min 0,7 UV-I 130 W/m 42,4 km/h (6 Bft)
12.08.2014 09:44 16,7 C 16,1 C 81 % 1011,1 hPa 0,0 l/m 0 min 0 min 0,7 UV-I 130 W/m 35,4 km/h (5 Bft)
12.08.2014 09:46 16,8 C 16,1 C 80 % 1011,3 hPa 0,0 l/m 0 min 0 min 1,0 UV-I 135 W/m 63,7 km/h (8 Bft)
12.08.2014 09:48 16,9 C 16,7 C 80 % 1011,2 hPa 0,0 l/m 2 min 0 min 1,2 UV-I 402 W/m 49,5 km/h (6 Bft)
12.08.2014 09:50 17,0 C 16,7 C 80 % 1011,2 hPa 0,0 l/m 2 min 0 min 0,9 UV-I 460 W/m 38,9 km/h (6 Bft)
12.08.2014 09:52 17,0 C 16,7 C 80 % 1011,2 hPa 0,0 l/m 0 min 0 min 0,6 UV-I 197 W/m 42,4 km/h (6 Bft)
12.08.2014 09:54 17,0 C 17,2 C 79 % 1011,2 hPa 0,0 l/m 0 min 0 min 0,8 UV-I 250 W/m 35,4 km/h (5 Bft)
12.08.2014 09:56 17,1 C 17,8 C 80 % 1011,2 hPa 0,0 l/m 0 min 0 min 1,1 UV-I 246 W/m 28,2 km/h (4 Bft)
12.08.2014 09:58 17,2 C 18,3 C 79 % 1011,3 hPa 0,0 l/m 2 min 0 min 1,5 UV-I 574 W/m 63,7 km/h (8 Bft)
12.08.2014 10:00 17,3 C 17,8 C 79 % 1011,3 hPa 0,0 l/m 2 min 0 min 1,5 UV-I 578 W/m 53,0 km/h (7 Bft)
12.08.2014 10:02 17,3 C 17,8 C 78 % 1011,3 hPa 0,0 l/m 2 min 0 min 1,0 UV-I 274 W/m 60,2 km/h (7 Bft)
12.08.2014 10:04 17,3 C 17,8 C 79 % 1011,3 hPa 0,0 l/m 2 min 0 min 0,5 UV-I 305 W/m 49,5 km/h (6 Bft)
12.08.2014 10:06 17,2 C 17,2 C 78 % 1011,3 hPa 0,0 l/m 0 min 0 min 0,7 UV-I 143 W/m 42,4 km/h (6 Bft)
12.08.2014 10:08 17,2 C 18,3 C 79 % 1011,3 hPa 0,0 l/m 2 min 0 min 1,6 UV-I 558 W/m 49,5 km/h (6 Bft)
12.08.2014 10:10 17,4 C 18,9 C 79 % 1011,3 hPa 0,0 l/m 2 min 0 min 1,7 UV-I 646 W/m 46,0 km/h (6 Bft)
12.08.2014 10:12 17,4 C 18,3 C 78 % 1011,2 hPa 0,0 l/m 2 min 0 min 1,4 UV-I 615 W/m 53,0 km/h (7 Bft)
12.08.2014 10:14 17,4 C 18,3 C 78 % 1011,2 hPa 0,0 l/m 2 min 0 min 1,1 UV-I 615 W/m 56,5 km/h (7 Bft)
12.08.2014 10:16 17,5 C 17,8 C 78 % 1011,3 hPa 0,0 l/m 2 min 0 min 1,0 UV-I 589 W/m 49,5 km/h (6 Bft)
12.08.2014 10:18 17,4 C 17,2 C 78 % 1011,3 hPa 0,0 l/m 0 min 0 min 0,6 UV-I 203 W/m 35,4 km/h (5 Bft)
12.08.2014 10:20 17,4 C 17,8 C 78 % 1011,3 hPa 0,0 l/m 0 min 0 min 0,8 UV-I 256 W/m 49,5 km/h (6 Bft)
12.08.2014 10:22 17,4 C 17,8 C 78 % 1011,3 hPa 0,0 l/m 2 min 0 min 0,9 UV-I 645 W/m 42,4 km/h (6 Bft)
12.08.2014 10:24 17,5 C 17,2 C 78 % 1011,3 hPa 0,0 l/m 2 min 0 min 0,7 UV-I 298 W/m 35,4 km/h (5 Bft)
12.08.2014 10:26 17,5 C 16,7 C 78 % 1011,3 hPa 0,0 l/m 0 min 0 min 0,6 UV-I 210 W/m 42,4 km/h (6 Bft)
12.08.2014 10:28 17,4 C 16,7 C 77 % 1011,3 hPa 0,0 l/m 0 min 0 min 0,7 UV-I 179 W/m 38,9 km/h (6 Bft)
12.08.2014 10:30 17,3 C 17,8 C 77 % 1011,2 hPa 0,0 l/m 0 min 0 min 1,6 UV-I 245 W/m 53,0 km/h (7 Bft)
12.08.2014 10:32 17,4 C 17,8 C 78 % 1011,2 hPa 0,0 l/m 0 min 0 min 1,3 UV-I 239 W/m 49,5 km/h (6 Bft)
12.08.2014 10:34 17,4 C 17,2 C 77 % 1011,2 hPa 0,0 l/m 0 min 0 min 1,2 UV-I 239 W/m 42,4 km/h (6 Bft)
12.08.2014 10:36 17,6 C 18,3 C 78 % 1011,3 hPa 0,0 l/m 0 min 0 min 2,0 UV-I 260 W/m 38,9 km/h (6 Bft)
12.08.2014 10:38 17,7 C 18,3 C 77 % 1011,3 hPa 0,0 l/m 0 min 0 min 2,1 UV-I 260 W/m 56,5 km/h (7 Bft)
12.08.2014 10:40 17,8 C 17,8 C 76 % 1011,3 hPa 0,0 l/m 0 min 0 min 1,4 UV-I 258 W/m 56,5 km/h (7 Bft)
12.08.2014 10:42 17,8 C 17,8 C 75 % 1011,3 hPa 0,0 l/m 0 min 0 min 1,7 UV-I 244 W/m 74,2 km/h (8 Bft)
12.08.2014 10:44 17,8 C 17,2 C 74 % 1011,3 hPa 0,0 l/m 0 min 0 min 1,3 UV-I 222 W/m 56,5 km/h (7 Bft)
12.08.2014 10:46 17,7 C 16,7 C 74 % 1011,2 hPa 0,0 l/m 0 min 0 min 1,2 UV-I 199 W/m 53,0 km/h (7 Bft)
12.08.2014 10:48 17,6 C 17,2 C 74 % 1011,3 hPa 0,0 l/m 2 min 0 min 2,2 UV-I 328 W/m 53,0 km/h (7 Bft)
12.08.2014 10:50 17,9 C 17,2 C 76 % 1011,3 hPa 0,0 l/m 2 min 0 min 2,6 UV-I 726 W/m 42,4 km/h (6 Bft)
12.08.2014 10:52 18,2 C 17,8 C 75 % 1011,3 hPa 0,0 l/m 2 min 0 min 2,2 UV-I 660 W/m 49,5 km/h (6 Bft)
12.08.2014 10:54 18,2 C 17,8 C 74 % 1011,3 hPa 0,0 l/m 2 min 0 min 1,3 UV-I 361 W/m 56,5 km/h (7 Bft)
12.08.2014 10:56 18,1 C 17,8 C 74 % 1011,3 hPa 0,0 l/m 0 min 0 min 1,6 UV-I 201 W/m 56,5 km/h (7 Bft)
12.08.2014 10:58 18,0 C 17,2 C 74 % 1011,3 hPa 0,0 l/m 0 min 0 min 1,9 UV-I 185 W/m 60,2 km/h (7 Bft)
12.08.2014 11:00 17,9 C 17,2 C 73 % 1011,3 hPa 0,0 l/m 0 min 0 min 1,9 UV-I 155 W/m 46,0 km/h (6 Bft)
12.08.2014 11:02 17,9 C 17,8 C 73 % 1011,3 hPa 0,0 l/m 2 min 0 min 2,6 UV-I 422 W/m 46,0 km/h (6 Bft)
12.08.2014 11:04 18,2 C 18,3 C 74 % 1011,3 hPa 0,0 l/m 2 min 0 min 2,3 UV-I 823 W/m 38,9 km/h (6 Bft)
12.08.2014 11:06 18,3 C 18,3 C 72 % 1011,3 hPa 0,0 l/m 2 min 0 min 2,4 UV-I 823 W/m 53,0 km/h (7 Bft)
12.08.2014 11:08 18,5 C 18,9 C 73 % 1011,3 hPa 0,0 l/m 2 min 0 min 2,6 UV-I 747 W/m 46,0 km/h (6 Bft)
12.08.2014 11:10 18,6 C 18,9 C 71 % 1011,3 hPa 0,0 l/m 2 min 0 min 3,0 UV-I 756 W/m 56,5 km/h (7 Bft)
12.08.2014 11:12 18,9 C 19,4 C 70 % 1011,3 hPa 0,0 l/m 2 min 0 min 3,1 UV-I 822 W/m 46,0 km/h (6 Bft)
12.08.2014 11:14 18,9 C 18,9 C 70 % 1011,3 hPa 0,0 l/m 2 min 0 min 1,8 UV-I 647 W/m 56,5 km/h (7 Bft)
12.08.2014 11:16 18,8 C 18,3 C 70 % 1011,3 hPa 0,0 l/m 2 min 0 min 2,0 UV-I 409 W/m 49,5 km/h (6 Bft)
12.08.2014 11:18 18,9 C 18,9 C 69 % 1011,3 hPa 0,0 l/m 2 min 0 min 2,4 UV-I 403 W/m 38,9 km/h (6 Bft)
12.08.2014 11:20 18,9 C 18,3 C 70 % 1011,4 hPa 0,0 l/m 2 min 0 min 1,7 UV-I 341 W/m 42,4 km/h (6 Bft)
12.08.2014 11:22 18,8 C 18,3 C 69 % 1011,4 hPa 0,0 l/m 2 min 0 min 2,0 UV-I 394 W/m 53,0 km/h (7 Bft)
12.08.2014 11:24 18,8 C 18,3 C 71 % 1011,3 hPa 0,0 l/m 2 min 0 min 1,8 UV-I 368 W/m 49,5 km/h (6 Bft)
12.08.2014 11:26 18,8 C 18,3 C 71 % 1011,3 hPa 0,0 l/m 0 min 0 min 2,6 UV-I 332 W/m 42,4 km/h (6 Bft)
12.08.2014 11:28 19,0 C 18,9 C 70 % 1011,3 hPa 0,0 l/m 2 min 0 min 3,5 UV-I 652 W/m 53,0 km/h (7 Bft)
12.08.2014 11:30 19,2 C 18,9 C 71 % 1011,3 hPa 0,0 l/m 2 min 0 min 3,5 UV-I 814 W/m 46,0 km/h (6 Bft)
12.08.2014 11:32 19,5 C 19,4 C 71 % 1011,2 hPa 0,0 l/m 2 min 0 min 3,6 UV-I 827 W/m 42,4 km/h (6 Bft)
12.08.2014 11:34 19,7 C 19,4 C 69 % 1011,4 hPa 0,0 l/m 2 min 0 min 3,3 UV-I 835 W/m 53,0 km/h (7 Bft)
12.08.2014 11:36 19,4 C 18,3 C 67 % 1011,4 hPa 0,0 l/m 2 min 0 min 1,6 UV-I 617 W/m 53,0 km/h (7 Bft)
12.08.2014 11:38 19,1 C 18,3 C 68 % 1011,3 hPa 0,0 l/m 0 min 0 min 2,8 UV-I 284 W/m 46,0 km/h (6 Bft)
12.08.2014 11:40 18,9 C 18,3 C 69 % 1011,3 hPa 0,0 l/m 2 min 0 min 2,8 UV-I 381 W/m 49,5 km/h (6 Bft)
12.08.2014 11:42 18,9 C 18,3 C 69 % 1011,3 hPa 0,0 l/m 2 min 0 min 2,1 UV-I 740 W/m 53,0 km/h (7 Bft)
12.08.2014 11:44 18,7 C 17,8 C 70 % 1011,3 hPa 0,0 l/m 0 min 0 min 1,3 UV-I 236 W/m 42,4 km/h (6 Bft)
12.08.2014 11:46 18,6 C 17,8 C 71 % 1011,3 hPa 0,0 l/m 0 min 0 min 0,8 UV-I 174 W/m 31,7 km/h (5 Bft)
12.08.2014 11:48 18,4 C 17,2 C 71 % 1011,2 hPa 0,0 l/m 0 min 0 min 1,1 UV-I 195 W/m 53,0 km/h (7 Bft)
12.08.2014 11:50 18,3 C 17,8 C 72 % 1011,3 hPa 0,0 l/m 0 min 0 min 2,9 UV-I 290 W/m 35,4 km/h (5 Bft)
12.08.2014 11:52 18,6 C 18,3 C 73 % 1011,2 hPa 0,0 l/m 2 min 0 min 4,1 UV-I 698 W/m 53,0 km/h (7 Bft)
12.08.2014 11:54 19,0 C 18,9 C 73 % 1011,2 hPa 0,0 l/m 2 min 0 min 2,7 UV-I 679 W/m 42,4 km/h (6 Bft)
12.08.2014 11:56 19,1 C 18,9 C 71 % 1011,2 hPa 0,0 l/m 2 min 0 min 2,0 UV-I 366 W/m 60,2 km/h (7 Bft)
12.08.2014 11:58 19,0 C 18,9 C 70 % 1011,2 hPa 0,0 l/m 2 min 0 min 2,2 UV-I 435 W/m 49,5 km/h (6 Bft)
12.08.2014 12:00 18,9 C 18,3 C 71 % 1011,3 hPa 0,0 l/m 2 min 0 min 1,5 UV-I 386 W/m 56,5 km/h (7 Bft)
12.08.2014 12:02 18,9 C 18,3 C 72 % 1011,2 hPa 0,0 l/m 0 min 0 min 1,2 UV-I 273 W/m 31,7 km/h (5 Bft)
12.08.2014 12:05 18,7 C 17,8 C 73 % 1011,2 hPa 0,0 l/m 0 min 2 min 1,0 UV-I 288 W/m 42,4 km/h (6 Bft)
12.08.2014 12:06 18,7 C 17,8 C 73 % 1011,2 hPa 0,0 l/m 0 min 1 min 1,1 UV-I 291 W/m 42,4 km/h (6 Bft)
12.08.2014 12:08 18,7 C 17,2 C 76 % 1011,2 hPa 0,0 l/m 0 min 2 min 0,8 UV-I 212 W/m 42,4 km/h (6 Bft)
12.08.2014 12:10 18,6 C 17,2 C 74 % 1011,2 hPa 0,0 l/m 0 min 0 min 1,2 UV-I 280 W/m 38,9 km/h (6 Bft)
12.08.2014 12:12 18,7 C 17,8 C 75 % 1011,2 hPa 0,0 l/m 0 min 0 min 2,7 UV-I 321 W/m 38,9 km/h (6 Bft)
12.08.2014 12:14 18,9 C 18,3 C 73 % 1011,2 hPa 0,0 l/m 0 min 0 min 2,3 UV-I 363 W/m 63,7 km/h (8 Bft)
12.08.2014 12:16 19,1 C 19,4 C 71 % 1011,2 hPa 0,0 l/m 0 min 0 min 3,5 UV-I 355 W/m 77,7 km/h (9 Bft)
12.08.2014 12:18 19,4 C 20,6 C 71 % 1011,1 hPa 0,0 l/m 0 min 0 min 4,2 UV-I 266 W/m 56,5 km/h (7 Bft)
12.08.2014 12:20 19,7 C 20,0 C 69 % 1011,1 hPa 0,0 l/m 0 min 0 min 4,2 UV-I 217 W/m 60,2 km/h (7 Bft)
12.08.2014 12:22 19,8 C 20,0 C 67 % 1011,1 hPa 0,0 l/m 0 min 0 min 4,4 UV-I 236 W/m 60,2 km/h (7 Bft)
12.08.2014 12:24 19,9 C 20,0 C 68 % 1011,1 hPa 0,0 l/m 2 min 0 min 4,1 UV-I 472 W/m 63,7 km/h (8 Bft)
12.08.2014 12:26 19,9 C 19,4 C 66 % 1011,1 hPa 0,0 l/m 2 min 0 min 2,4 UV-I 525 W/m 53,0 km/h (7 Bft)
12.08.2014 12:28 19,8 C 19,4 C 65 % 1011,1 hPa 0,0 l/m 0 min 0 min 2,3 UV-I 364 W/m 63,7 km/h (8 Bft)
12.08.2014 12:30 19,7 C 19,4 C 66 % 1011,0 hPa 0,0 l/m 2 min 0 min 3,2 UV-I 395 W/m 63,7 km/h (8 Bft)
12.08.2014 12:32 19,7 C 19,4 C 67 % 1011,0 hPa 0,0 l/m 0 min 0 min 2,5 UV-I 362 W/m 46,0 km/h (6 Bft)
12.08.2014 12:34 19,8 C 20,0 C 69 % 1011,0 hPa 0,0 l/m 2 min 0 min 4,4 UV-I 563 W/m 49,5 km/h (6 Bft)
12.08.2014 12:36 19,9 C 20,0 C 67 % 1011,0 hPa 0,0 l/m 2 min 0 min 2,9 UV-I 729 W/m 56,5 km/h (7 Bft)
12.08.2014 12:38 19,9 C 20,0 C 67 % 1011,1 hPa 0,0 l/m 2 min 0 min 2,6 UV-I 418 W/m 70,6 km/h (8 Bft)
12.08.2014 12:40 19,9 C 19,4 C 67 % 1011,0 hPa 0,0 l/m 0 min 0 min 1,9 UV-I 317 W/m 49,5 km/h (6 Bft)
12.08.2014 12:42 19,7 C 18,9 C 67 % 1011,0 hPa 0,0 l/m 0 min 0 min 1,6 UV-I 301 W/m 56,5 km/h (7 Bft)
12.08.2014 12:44 19,6 C 18,9 C 68 % 1011,1 hPa 0,0 l/m 0 min 0 min 1,6 UV-I 307 W/m 38,9 km/h (6 Bft)
12.08.2014 12:46 19,4 C 18,9 C 68 % 1011,2 hPa 0,0 l/m 0 min 2 min 1,8 UV-I 355 W/m 63,7 km/h (8 Bft)
12.08.2014 12:48 19,2 C 17,8 C 69 % 1011,1 hPa 0,0 l/m 0 min 2 min 1,6 UV-I 280 W/m 63,7 km/h (8 Bft)
12.08.2014 12:50 18,8 C 16,7 C 69 % 1011,1 hPa 0,0 l/m 0 min 2 min 1,4 UV-I 238 W/m 56,5 km/h (7 Bft)
12.08.2014 12:52 18,6 C 16,1 C 72 % 1011,1 hPa 0,0 l/m 0 min 2 min 1,4 UV-I 237 W/m 46,0 km/h (6 Bft)
12.08.2014 12:54 18,3 C 16,7 C 74 % 1011,1 hPa 0,0 l/m 0 min 0 min 2,8 UV-I 262 W/m 38,9 km/h (6 Bft)
12.08.2014 12:56 18,6 C 17,8 C 75 % 1011,1 hPa 0,0 l/m 2 min 0 min 4,5 UV-I 410 W/m 46,0 km/h (6 Bft)
12.08.2014 12:58 18,9 C 17,8 C 73 % 1011,1 hPa 0,0 l/m 2 min 0 min 2,7 UV-I 637 W/m 42,4 km/h (6 Bft)
12.08.2014 13:00 19,0 C 17,8 C 72 % 1011,1 hPa 0,0 l/m 0 min 0 min 1,7 UV-I 167 W/m 28,2 km/h (4 Bft)
12.08.2014 13:02 19,1 C 17,8 C 72 % 1011,0 hPa 0,0 l/m 0 min 0 min 2,7 UV-I 187 W/m 31,7 km/h (5 Bft)
12.08.2014 13:04 19,1 C 18,3 C 69 % 1011,0 hPa 0,0 l/m 0 min 0 min 2,8 UV-I 291 W/m 56,5 km/h (7 Bft)
12.08.2014 13:06 19,2 C 18,3 C 68 % 1011,0 hPa 0,0 l/m 0 min 0 min 2,7 UV-I 381 W/m 53,0 km/h (7 Bft)
12.08.2014 13:08 19,2 C 18,9 C 68 % 1011,0 hPa 0,0 l/m 0 min 0 min 2,3 UV-I 351 W/m 49,5 km/h (6 Bft)
12.08.2014 13:10 19,2 C 18,3 C 67 % 1011,0 hPa 0,0 l/m 0 min 2 min 2,2 UV-I 308 W/m 56,5 km/h (7 Bft)
12.08.2014 13:12 19,2 C 18,3 C 67 % 1011,0 hPa 0,0 l/m 0 min 0 min 1,7 UV-I 296 W/m 49,5 km/h (6 Bft)
12.08.2014 13:14 19,1 C 17,8 C 67 % 1011,1 hPa 0,0 l/m 0 min 0 min 1,1 UV-I 165 W/m 60,2 km/h (7 Bft)
12.08.2014 13:16 18,9 C 18,3 C 68 % 1011,0 hPa 0,0 l/m 0 min 0 min 2,4 UV-I 217 W/m 56,5 km/h (7 Bft)
12.08.2014 13:18 19,1 C 18,9 C 67 % 1011,1 hPa 0,0 l/m 2 min 0 min 4,0 UV-I 896 W/m 74,2 km/h (8 Bft)
12.08.2014 13:20 19,3 C 18,9 C 67 % 1011,0 hPa 0,0 l/m 2 min 0 min 3,4 UV-I 925 W/m 60,2 km/h (7 Bft)
12.08.2014 13:22 19,6 C 18,9 C 66 % 1011,0 hPa 0,0 l/m 2 min 0 min 4,6 UV-I 837 W/m 63,7 km/h (8 Bft)
12.08.2014 13:24 19,7 C 19,4 C 67 % 1011,0 hPa 0,0 l/m 2 min 0 min 3,6 UV-I 831 W/m 46,0 km/h (6 Bft)
12.08.2014 13:26 19,8 C 19,4 C 68 % 1010,8 hPa 0,0 l/m 2 min 0 min 3,5 UV-I 805 W/m 56,5 km/h (7 Bft)
12.08.2014 13:28 19,9 C 18,9 C 67 % 1010,9 hPa 0,0 l/m 2 min 0 min 3,0 UV-I 726 W/m 53,0 km/h (7 Bft)
12.08.2014 13:30 19,9 C 19,4 C 68 % 1010,9 hPa 0,0 l/m 2 min 0 min 4,4 UV-I 764 W/m 60,2 km/h (7 Bft)
12.08.2014 13:32 20,1 C 19,4 C 68 % 1010,8 hPa 0,0 l/m 2 min 0 min 4,6 UV-I 783 W/m 38,9 km/h (6 Bft)
12.08.2014 13:34 20,3 C 20,0 C 66 % 1010,8 hPa 0,0 l/m 2 min 0 min 4,6 UV-I 795 W/m 46,0 km/h (6 Bft)
12.08.2014 13:36 20,4 C 20,0 C 65 % 1010,8 hPa 0,0 l/m 2 min 0 min 4,5 UV-I 793 W/m 70,6 km/h (8 Bft)
12.08.2014 13:38 20,4 C 20,0 C 65 % 1010,8 hPa 0,0 l/m 2 min 0 min 2,9 UV-I 611 W/m 38,9 km/h (6 Bft)
12.08.2014 13:40 20,3 C 19,4 C 66 % 1010,7 hPa 0,0 l/m 0 min 0 min 1,9 UV-I 242 W/m 35,4 km/h (5 Bft)
12.08.2014 13:42 20,1 C 19,4 C 66 % 1010,7 hPa 0,0 l/m 0 min 0 min 1,9 UV-I 262 W/m 46,0 km/h (6 Bft)
12.08.2014 13:44 19,9 C 19,4 C 66 % 1010,8 hPa 0,0 l/m 0 min 0 min 1,8 UV-I 260 W/m 42,4 km/h (6 Bft)
12.08.2014 13:46 19,7 C 18,9 C 66 % 1010,7 hPa 0,0 l/m 0 min 0 min 1,5 UV-I 231 W/m 53,0 km/h (7 Bft)
12.08.2014 13:48 19,6 C 18,9 C 65 % 1010,8 hPa 0,0 l/m 0 min 0 min 1,0 UV-I 170 W/m 60,2 km/h (7 Bft)
12.08.2014 13:50 19,4 C 18,3 C 66 % 1010,9 hPa 0,0 l/m 0 min 2 min 0,5 UV-I 135 W/m 91,9 km/h (10 Bft)
12.08.2014 13:52 19,1 C 15,0 C 70 % 1011,0 hPa 0,0 l/m 0 min 2 min 0,0 UV-I 107 W/m 70,6 km/h (8 Bft)
12.08.2014 13:54 18,5 C 14,4 C 75 % 1011,0 hPa 0,2 l/m 0 min 2 min 0,0 UV-I 99 W/m 53,0 km/h (7 Bft)
12.08.2014 13:56 17,8 C 13,9 C 77 % 1011,0 hPa 0,0 l/m 0 min 2 min 0,0 UV-I 97 W/m 49,5 km/h (6 Bft)
12.08.2014 13:58 17,2 C 13,3 C 78 % 1011,0 hPa 0,4 l/m 0 min 2 min 0,0 UV-I 90 W/m 53,0 km/h (7 Bft)
12.08.2014 14:00 16,6 C 12,8 C 78 % 1010,9 hPa 0,2 l/m 0 min 2 min 0,0 UV-I 88 W/m 42,4 km/h (6 Bft)
12.08.2014 14:02 16,1 C 12,8 C 81 % 1010,8 hPa 0,0 l/m 0 min 2 min 0,0 UV-I 98 W/m 38,9 km/h (6 Bft)
12.08.2014 14:04 15,8 C 13,3 C 83 % 1010,8 hPa 0,0 l/m 0 min 2 min 1,3 UV-I 143 W/m 42,4 km/h (6 Bft)
12.08.2014 14:06 15,8 C 13,3 C 84 % 1010,7 hPa 0,2 l/m 2 min 2 min 1,6 UV-I 524 W/m 24,7 km/h (4 Bft)
12.08.2014 14:08 15,7 C 13,9 C 84 % 1010,7 hPa 0,0 l/m 0 min 2 min 1,5 UV-I 177 W/m 24,7 km/h (4 Bft)
12.08.2014 14:10 15,7 C 13,9 C 85 % 1010,7 hPa 0,0 l/m 0 min 2 min 2,1 UV-I 232 W/m 21,3 km/h (4 Bft)
12.08.2014 14:12 16,1 C 15,0 C 87 % 1010,7 hPa 0,0 l/m 2 min 2 min 4,0 UV-I 589 W/m 21,3 km/h (4 Bft)
12.08.2014 14:14 16,4 C 15,0 C 88 % 1010,7 hPa 0,0 l/m 2 min 2 min 4,2 UV-I 823 W/m 31,7 km/h (5 Bft)
12.08.2014 14:16 16,8 C 15,0 C 87 % 1010,5 hPa 0,0 l/m 2 min 0 min 4,1 UV-I 735 W/m 21,3 km/h (4 Bft)
12.08.2014 14:18 17,3 C 15,6 C 86 % 1010,5 hPa 0,0 l/m 2 min 0 min 3,9 UV-I 696 W/m 31,7 km/h (5 Bft)
12.08.2014 14:20 17,9 C 16,1 C 89 % 1010,5 hPa 0,0 l/m 2 min 0 min 3,9 UV-I 687 W/m 24,7 km/h (4 Bft)
12.08.2014 14:22 18,1 C 16,1 C 86 % 1010,5 hPa 0,0 l/m 2 min 0 min 3,9 UV-I 695 W/m 21,3 km/h (4 Bft)
12.08.2014 14:24 18,3 C 16,1 C 84 % 1010,4 hPa 0,0 l/m 2 min 0 min 3,9 UV-I 723 W/m 28,2 km/h (4 Bft)
12.08.2014 14:26 18,4 C 16,1 C 83 % 1010,4 hPa 0,0 l/m 2 min 0 min 2,7 UV-I 567 W/m 35,4 km/h (5 Bft)
12.08.2014 14:28 18,4 C 16,1 C 80 % 1010,4 hPa 0,0 l/m 0 min 0 min 3,0 UV-I 351 W/m 35,4 km/h (5 Bft)
12.08.2014 14:30 18,6 C 16,7 C 80 % 1010,3 hPa 0,0 l/m 2 min 0 min 4,0 UV-I 790 W/m 31,7 km/h (5 Bft)
12.08.2014 14:32 19,0 C 16,7 C 81 % 1010,4 hPa 0,0 l/m 2 min 0 min 4,0 UV-I 803 W/m 35,4 km/h (5 Bft)
12.08.2014 14:34 19,1 C 16,7 C 78 % 1010,3 hPa 0,0 l/m 2 min 0 min 3,1 UV-I 803 W/m 42,4 km/h (6 Bft)
12.08.2014 14:36 19,1 C 16,7 C 75 % 1010,3 hPa 0,0 l/m 2 min 0 min 3,6 UV-I 733 W/m 38,9 km/h (6 Bft)
12.08.2014 14:38 19,4 C 17,2 C 77 % 1010,4 hPa 0,0 l/m 2 min 0 min 3,7 UV-I 698 W/m 56,5 km/h (7 Bft)
12.08.2014 14:40 19,6 C 17,2 C 74 % 1010,2 hPa 0,0 l/m 2 min 0 min 4,0 UV-I 781 W/m 38,9 km/h (6 Bft)
12.08.2014 14:42 19,9 C 17,2 C 74 % 1010,2 hPa 0,0 l/m 2 min 0 min 4,0 UV-I 786 W/m 42,4 km/h (6 Bft)
12.08.2014 14:44 20,1 C 17,2 C 72 % 1010,2 hPa 0,0 l/m 2 min 0 min 3,9 UV-I 744 W/m 49,5 km/h (6 Bft)
12.08.2014 14:46 20,3 C 17,2 C 74 % 1010,2 hPa 0,0 l/m 2 min 0 min 3,9 UV-I 738 W/m 35,4 km/h (5 Bft)
12.08.2014 14:48 20,4 C 17,2 C 70 % 1010,1 hPa 0,0 l/m 2 min 0 min 3,9 UV-I 737 W/m 53,0 km/h (7 Bft)
12.08.2014 14:50 20,3 C 16,7 C 69 % 1010,2 hPa 0,0 l/m 2 min 0 min 3,5 UV-I 552 W/m 49,5 km/h (6 Bft)
12.08.2014 14:52 20,4 C 16,7 C 69 % 1010,2 hPa 0,0 l/m 2 min 0 min 3,8 UV-I 543 W/m 53,0 km/h (7 Bft)
12.08.2014 14:54 20,4 C 16,7 C 68 % 1010,1 hPa 0,0 l/m 2 min 0 min 3,6 UV-I 699 W/m 63,7 km/h (8 Bft)
12.08.2014 14:56 20,4 C 16,7 C 68 % 1009,9 hPa 0,0 l/m 2 min 0 min 3,5 UV-I 715 W/m 49,5 km/h (6 Bft)
12.08.2014 14:58 20,4 C 16,7 C 68 % 1009,9 hPa 0,0 l/m 2 min 0 min 2,9 UV-I 774 W/m 46,0 km/h (6 Bft)
12.08.2014 15:00 20,4 C 16,7 C 68 % 1009,9 hPa 0,0 l/m 2 min 0 min 3,7 UV-I 768 W/m 46,0 km/h (6 Bft)
12.08.2014 15:02 20,5 C 17,2 C 65 % 1009,9 hPa 0,0 l/m 2 min 0 min 3,6 UV-I 743 W/m 53,0 km/h (7 Bft)
12.08.2014 15:04 20,6 C 17,2 C 68 % 1009,9 hPa 0,0 l/m 2 min 0 min 3,4 UV-I 719 W/m 35,4 km/h (5 Bft)
12.08.2014 15:06 20,6 C 16,7 C 68 % 1009,8 hPa 0,0 l/m 2 min 0 min 1,6 UV-I 580 W/m 31,7 km/h (5 Bft)
12.08.2014 15:08 20,3 C 16,7 C 67 % 1009,9 hPa 0,0 l/m 0 min 0 min 1,4 UV-I 184 W/m 38,9 km/h (6 Bft)
12.08.2014 15:10 20,1 C 16,7 C 67 % 1009,9 hPa 0,0 l/m 0 min 0 min 2,8 UV-I 292 W/m 49,5 km/h (6 Bft)
12.08.2014 15:12 20,4 C 17,2 C 68 % 1009,9 hPa 0,0 l/m 2 min 0 min 3,7 UV-I 630 W/m 35,4 km/h (5 Bft)
12.08.2014 15:14 20,5 C 17,2 C 66 % 1009,8 hPa 0,0 l/m 2 min 0 min 3,6 UV-I 725 W/m 56,5 km/h (7 Bft)
12.08.2014 15:16 20,8 C 17,2 C 66 % 1009,7 hPa 0,0 l/m 2 min 0 min 3,6 UV-I 727 W/m 46,0 km/h (6 Bft)
12.08.2014 15:18 21,0 C 17,8 C 64 % 1009,8 hPa 0,0 l/m 2 min 0 min 3,6 UV-I 741 W/m 63,7 km/h (8 Bft)
12.08.2014 15:20 21,0 C 17,8 C 64 % 1009,7 hPa 0,0 l/m 2 min 0 min 2,7 UV-I 749 W/m 60,2 km/h (7 Bft)
12.08.2014 15:22 21,1 C 17,8 C 64 % 1009,7 hPa 0,0 l/m 2 min 0 min 2,5 UV-I 749 W/m 56,5 km/h (7 Bft)
12.08.2014 15:24 20,9 C 17,2 C 63 % 1009,7 hPa 0,0 l/m 0 min 0 min 1,3 UV-I 298 W/m 46,0 km/h (6 Bft)
12.08.2014 15:26 20,5 C 17,2 C 63 % 1009,7 hPa 0,0 l/m 0 min 0 min 1,3 UV-I 177 W/m 42,4 km/h (6 Bft)
12.08.2014 15:28 20,2 C 17,2 C 63 % 1009,7 hPa 0,0 l/m 0 min 0 min 1,4 UV-I 221 W/m 38,9 km/h (6 Bft)
12.08.2014 15:30 20,1 C 17,2 C 66 % 1009,7 hPa 0,0 l/m 0 min 0 min 1,2 UV-I 206 W/m 28,2 km/h (4 Bft)
12.08.2014 15:32 20,1 C 17,2 C 66 % 1009,8 hPa 0,0 l/m 0 min 0 min 1,7 UV-I 261 W/m 46,0 km/h (6 Bft)
12.08.2014 15:34 20,2 C 17,8 C 68 % 1009,8 hPa 0,0 l/m 2 min 0 min 2,6 UV-I 497 W/m 42,4 km/h (6 Bft)
12.08.2014 15:36 20,3 C 18,3 C 69 % 1009,8 hPa 0,0 l/m 2 min 0 min 2,5 UV-I 413 W/m 49,5 km/h (6 Bft)
12.08.2014 15:38 20,6 C 18,9 C 67 % 1009,8 hPa 0,0 l/m 2 min 0 min 3,2 UV-I 559 W/m 46,0 km/h (6 Bft)
12.08.2014 15:40 20,9 C 18,9 C 67 % 1009,8 hPa 0,0 l/m 2 min 0 min 3,1 UV-I 731 W/m 38,9 km/h (6 Bft)
12.08.2014 15:42 21,1 C 18,9 C 63 % 1009,7 hPa 0,0 l/m 2 min 0 min 3,1 UV-I 657 W/m 49,5 km/h (6 Bft)
12.08.2014 15:44 20,9 C 18,9 C 62 % 1009,7 hPa 0,0 l/m 2 min 0 min 3,1 UV-I 670 W/m 60,2 km/h (7 Bft)
12.08.2014 15:46 21,0 C 18,9 C 64 % 1009,5 hPa 0,0 l/m 2 min 0 min 3,1 UV-I 639 W/m 46,0 km/h (6 Bft)
12.08.2014 15:48 21,0 C 18,9 C 63 % 1009,5 hPa 0,0 l/m 2 min 0 min 3,0 UV-I 662 W/m 56,5 km/h (7 Bft)
12.08.2014 15:50 21,0 C 18,9 C 64 % 1009,4 hPa 0,0 l/m 2 min 0 min 2,7 UV-I 605 W/m 46,0 km/h (6 Bft)
12.08.2014 15:52 21,0 C 19,4 C 61 % 1009,4 hPa 0,0 l/m 2 min 0 min 2,9 UV-I 674 W/m 49,5 km/h (6 Bft)
12.08.2014 15:54 21,0 C 19,4 C 62 % 1009,4 hPa 0,0 l/m 2 min 0 min 2,6 UV-I 642 W/m 42,4 km/h (6 Bft)
12.08.2014 15:56 20,9 C 19,4 C 64 % 1009,3 hPa 0,0 l/m 2 min 0 min 1,7 UV-I 552 W/m 38,9 km/h (6 Bft)
12.08.2014 15:58 20,7 C 18,9 C 62 % 1009,3 hPa 0,0 l/m 0 min 0 min 1,3 UV-I 202 W/m 35,4 km/h (5 Bft)
12.08.2014 16:00 20,4 C 18,9 C 64 % 1009,3 hPa 0,0 l/m 0 min 0 min 1,5 UV-I 218 W/m 46,0 km/h (6 Bft)
12.08.2014 16:02 20,2 C 18,9 C 64 % 1009,3 hPa 0,0 l/m 0 min 0 min 1,4 UV-I 230 W/m 35,4 km/h (5 Bft)
12.08.2014 16:04 20,2 C 18,9 C 64 % 1009,3 hPa 0,0 l/m 0 min 0 min 1,8 UV-I 241 W/m 42,4 km/h (6 Bft)
12.08.2014 16:06 20,3 C 19,4 C 65 % 1009,3 hPa 0,0 l/m 2 min 0 min 2,5 UV-I 370 W/m 35,4 km/h (5 Bft)
12.08.2014 16:08 20,7 C 19,4 C 64 % 1009,3 hPa 0,0 l/m 2 min 0 min 1,8 UV-I 504 W/m 56,5 km/h (7 Bft)
12.08.2014 16:10 20,7 C 19,4 C 63 % 1009,2 hPa 0,0 l/m 0 min 0 min 1,7 UV-I 277 W/m 38,9 km/h (6 Bft)
12.08.2014 16:12 20,7 C 20,0 C 65 % 1009,2 hPa 0,0 l/m 0 min 0 min 2,2 UV-I 276 W/m 42,4 km/h (6 Bft)
12.08.2014 16:14 21,0 C 20,6 C 64 % 1009,2 hPa 0,0 l/m 2 min 0 min 2,7 UV-I 743 W/m 31,7 km/h (5 Bft)
12.08.2014 16:16 21,3 C 20,6 C 64 % 1009,2 hPa 0,0 l/m 2 min 0 min 2,1 UV-I 747 W/m 31,7 km/h (5 Bft)
12.08.2014 16:18 21,2 C 20,0 C 64 % 1009,1 hPa 0,0 l/m 0 min 0 min 1,3 UV-I 295 W/m 35,4 km/h (5 Bft)
12.08.2014 16:20 21,0 C 19,4 C 62 % 1009,1 hPa 0,0 l/m 0 min 0 min 0,9 UV-I 143 W/m 60,2 km/h (7 Bft)
12.08.2014 16:22 20,7 C 18,9 C 63 % 1009,2 hPa 0,0 l/m 0 min 0 min 0,5 UV-I 120 W/m 53,0 km/h (7 Bft)
12.08.2014 16:24 20,5 C 18,9 C 63 % 1009,1 hPa 0,0 l/m 0 min 2 min 0,0 UV-I 101 W/m 31,7 km/h (5 Bft)
12.08.2014 16:26 20,3 C 18,3 C 65 % 1009,1 hPa 0,0 l/m 0 min 2 min 0,0 UV-I 86 W/m 35,4 km/h (5 Bft)
12.08.2014 16:28 20,1 C 17,8 C 66 % 1009,1 hPa 0,0 l/m 0 min 2 min 0,0 UV-I 80 W/m 49,5 km/h (6 Bft)
12.08.2014 16:30 19,9 C 17,2 C 67 % 1009,1 hPa 0,0 l/m 0 min 0 min 0,0 UV-I 86 W/m 28,2 km/h (4 Bft)
12.08.2014 16:32 19,8 C 17,2 C 66 % 1009,1 hPa 0,0 l/m 0 min 0 min 0,0 UV-I 102 W/m 46,0 km/h (6 Bft)
12.08.2014 16:34 19,8 C 17,2 C 69 % 1009,2 hPa 0,0 l/m 0 min 0 min 0,0 UV-I 114 W/m 35,4 km/h (5 Bft)
12.08.2014 16:36 19,7 C 17,8 C 68 % 1009,4 hPa 0,0 l/m 0 min 0 min 0,0 UV-I 100 W/m 42,4 km/h (6 Bft)
12.08.2014 16:38 19,7 C 17,8 C 68 % 1009,7 hPa 0,0 l/m 0 min 0 min 0,0 UV-I 63 W/m 56,5 km/h (7 Bft)
12.08.2014 16:40 19,3 C 17,2 C 65 % 1009,9 hPa 0,0 l/m 0 min 0 min 0,0 UV-I 31 W/m 70,6 km/h (8 Bft)
12.08.2014 16:42 18,8 C 16,7 C 66 % 1010,1 hPa 0,0 l/m 0 min 0 min 0,0 UV-I 18 W/m 74,2 km/h (8 Bft)
12.08.2014 16:44 18,1 C 13,9 C 70 % 1010,3 hPa 0,6 l/m 0 min 2 min 0,0 UV-I 16 W/m 81,2 km/h (9 Bft)
12.08.2014 16:46 17,2 C 12,8 C 76 % 1010,3 hPa 1,6 l/m 0 min 2 min 0,0 UV-I 19 W/m 42,4 km/h (6 Bft)
12.08.2014 16:48 16,2 C 12,2 C 80 % 1010,3 hPa 0,8 l/m 0 min 2 min 0,0 UV-I 26 W/m 49,5 km/h (6 Bft)
12.08.2014 16:50 15,5 C 12,2 C 82 % 1010,2 hPa 0,6 l/m 0 min 2 min 0,0 UV-I 31 W/m 49,5 km/h (6 Bft)
12.08.2014 16:52 14,9 C 12,2 C 84 % 1010,1 hPa 0,0 l/m 0 min 2 min 0,0 UV-I 40 W/m 35,4 km/h (5 Bft)
12.08.2014 16:54 14,6 C 12,2 C 86 % 1010,2 hPa 0,0 l/m 0 min 2 min 0,0 UV-I 52 W/m 28,2 km/h (4 Bft)
12.08.2014 16:56 14,3 C 12,2 C 88 % 1010,1 hPa 0,0 l/m 0 min 2 min 0,0 UV-I 57 W/m 21,3 km/h (4 Bft)
12.08.2014 16:58 14,2 C 12,8 C 90 % 1010,1 hPa 0,2 l/m 0 min 2 min 0,0 UV-I 67 W/m 21,3 km/h (4 Bft)
12.08.2014 17:00 14,2 C 12,8 C 90 % 1010,1 hPa 0,0 l/m 0 min 2 min 0,0 UV-I 70 W/m 21,3 km/h (4 Bft)
12.08.2014 17:02 14,2 C 12,8 C 91 % 1010,2 hPa 0,0 l/m 0 min 2 min 0,0 UV-I 64 W/m 24,7 km/h (4 Bft)
12.08.2014 17:04 14,2 C 12,8 C 92 % 1010,3 hPa 0,0 l/m 0 min 2 min 0,0 UV-I 56 W/m 24,7 km/h (4 Bft)
12.08.2014 17:06 14,2 C 12,8 C 92 % 1010,3 hPa 0,0 l/m 0 min 2 min 0,0 UV-I 47 W/m 21,3 km/h (4 Bft)
12.08.2014 17:08 14,2 C 12,8 C 92 % 1010,4 hPa 0,0 l/m 0 min 2 min 0,0 UV-I 41 W/m 42,4 km/h (6 Bft)
12.08.2014 17:10 14,1 C 12,8 C 95 % 1010,3 hPa 0,2 l/m 0 min 2 min 0,0 UV-I 39 W/m 31,7 km/h (5 Bft)
12.08.2014 17:12 14,1 C 12,8 C 93 % 1010,2 hPa 0,2 l/m 0 min 2 min 0,0 UV-I 40 W/m 31,7 km/h (5 Bft)
12.08.2014 17:14 14,1 C 12,8 C 93 % 1010,2 hPa 0,0 l/m 0 min 2 min 0,0 UV-I 44 W/m 24,7 km/h (4 Bft)
12.08.2014 17:16 14,1 C 12,8 C 93 % 1010,2 hPa 0,2 l/m 0 min 2 min 0,0 UV-I 44 W/m 24,7 km/h (4 Bft)
12.08.2014 17:18 14,0 C 12,8 C 94 % 1010,2 hPa 0,0 l/m 0 min 2 min 0,0 UV-I 46 W/m 14,2 km/h (3 Bft)
12.08.2014 17:20 14,0 C 12,8 C 94 % 1010,2 hPa 0,0 l/m 0 min 2 min 0,0 UV-I 51 W/m 21,3 km/h (4 Bft)
12.08.2014 17:22 14,0 C 12,8 C 94 % 1010,2 hPa 0,2 l/m 0 min 2 min 0,0 UV-I 53 W/m 14,2 km/h (3 Bft)
12.08.2014 17:24 14,1 C 12,8 C 94 % 1010,3 hPa 0,0 l/m 0 min 2 min 0,0 UV-I 55 W/m 21,3 km/h (4 Bft)
12.08.2014 17:26 14,2 C 12,8 C 94 % 1010,3 hPa 0,0 l/m 0 min 2 min 0,0 UV-I 58 W/m 24,7 km/h (4 Bft)
12.08.2014 17:28 14,1 C 12,8 C 94 % 1010,4 hPa 0,0 l/m 0 min 2 min 0,0 UV-I 54 W/m 31,7 km/h (5 Bft)
12.08.2014 17:30 14,2 C 12,8 C 95 % 1010,5 hPa 0,0 l/m 0 min 0 min 0,0 UV-I 41 W/m 42,4 km/h (6 Bft)
12.08.2014 17:32 14,2 C 12,8 C 95 % 1010,4 hPa 0,0 l/m 0 min 2 min 0,0 UV-I 31 W/m 49,5 km/h (6 Bft)
12.08.2014 17:34 14,1 C 12,2 C 94 % 1010,5 hPa 0,2 l/m 0 min 2 min 0,0 UV-I 26 W/m 56,5 km/h (7 Bft)
12.08.2014 17:36 14,1 C 12,2 C 94 % 1010,5 hPa 0,0 l/m 0 min 2 min 0,0 UV-I 27 W/m 67,1 km/h (8 Bft)
12.08.2014 17:38 14,0 C 12,2 C 94 % 1010,5 hPa 0,2 l/m 0 min 2 min 0,0 UV-I 32 W/m 46,0 km/h (6 Bft)
12.08.2014 17:40 14,0 C 12,2 C 94 % 1010,5 hPa 0,0 l/m 0 min 2 min 0,0 UV-I 38 W/m 60,2 km/h (7 Bft)
12.08.2014 17:42 13,9 C 12,2 C 94 % 1010,5 hPa 0,2 l/m 0 min 2 min 0,0 UV-I 45 W/m 53,0 km/h (7 Bft)
12.08.2014 17:44 13,9 C 12,2 C 94 % 1010,5 hPa 0,2 l/m 0 min 2 min 0,0 UV-I 53 W/m 53,0 km/h (7 Bft)
12.08.2014 17:46 13,9 C 12,2 C 94 % 1010,5 hPa 0,0 l/m 0 min 2 min 0,0 UV-I 65 W/m 49,5 km/h (6 Bft)
12.08.2014 17:48 13,9 C 12,8 C 94 % 1010,5 hPa 0,0 l/m 0 min 2 min 0,0 UV-I 70 W/m 38,9 km/h (6 Bft)
12.08.2014 17:50 13,9 C 12,8 C 94 % 1010,5 hPa 0,0 l/m 0 min 2 min 0,0 UV-I 63 W/m 46,0 km/h (6 Bft)
12.08.2014 17:52 13,9 C 12,8 C 94 % 1010,4 hPa 0,2 l/m 0 min 2 min 0,0 UV-I 52 W/m 46,0 km/h (6 Bft)
12.08.2014 17:54 13,9 C 12,2 C 94 % 1010,3 hPa 0,0 l/m 0 min 2 min 0,0 UV-I 43 W/m 35,4 km/h (5 Bft)
12.08.2014 17:56 13,9 C 12,8 C 94 % 1010,2 hPa 0,2 l/m 0 min 2 min 0,0 UV-I 39 W/m 24,7 km/h (4 Bft)
12.08.2014 17:58 13,9 C 12,2 C 94 % 1010,1 hPa 0,0 l/m 0 min 2 min 0,0 UV-I 36 W/m 35,4 km/h (5 Bft)
12.08.2014 18:00 13,8 C 12,2 C 94 % 1010,1 hPa 0,0 l/m 0 min 2 min 0,0 UV-I 35 W/m 35,4 km/h (5 Bft)
12.08.2014 18:02 13,8 C 12,2 C 94 % 1010,0 hPa 0,0 l/m 0 min 2 min 0,0 UV-I 34 W/m 31,7 km/h (5 Bft)
12.08.2014 18:05 13,8 C 12,2 C 94 % 1010,0 hPa 0,2 l/m 0 min 2 min 0,0 UV-I 35 W/m 31,7 km/h (5 Bft)
12.08.2014 18:06 13,8 C 12,2 C 94 % 1010,0 hPa 0,2 l/m 0 min 1 min 0,0 UV-I 34 W/m 38,9 km/h (6 Bft)
12.08.2014 18:08 13,8 C 12,2 C 94 % 1009,8 hPa 0,0 l/m 0 min 2 min 0,0 UV-I 40 W/m 31,7 km/h (5 Bft)
12.08.2014 18:10 13,8 C 12,2 C 94 % 1009,6 hPa 0,0 l/m 0 min 2 min 0,0 UV-I 50 W/m 24,7 km/h (4 Bft)
12.08.2014 18:12 13,8 C 12,2 C 94 % 1009,5 hPa 0,2 l/m 0 min 2 min 0,0 UV-I 61 W/m 21,3 km/h (4 Bft)
12.08.2014 18:14 13,8 C 12,2 C 94 % 1009,4 hPa 0,2 l/m 0 min 2 min 0,0 UV-I 72 W/m 17,7 km/h (3 Bft)
12.08.2014 18:16 13,8 C 12,2 C 94 % 1009,4 hPa 0,0 l/m 0 min 2 min 0,0 UV-I 83 W/m 14,2 km/h (3 Bft)
12.08.2014 18:18 13,8 C 12,2 C 94 % 1009,4 hPa 0,0 l/m 0 min 2 min 0,0 UV-I 100 W/m 21,3 km/h (4 Bft)
12.08.2014 18:20 13,9 C 12,8 C 94 % 1009,3 hPa 0,2 l/m 0 min 2 min 0,0 UV-I 140 W/m 31,7 km/h (5 Bft)
12.08.2014 18:22 13,9 C 12,2 C 93 % 1009,2 hPa 0,0 l/m 0 min 2 min 0,0 UV-I 182 W/m 17,7 km/h (3 Bft)
12.08.2014 18:24 14,2 C 12,8 C 93 % 1009,4 hPa 0,0 l/m 2 min 0 min 0,0 UV-I 317 W/m 21,3 km/h (4 Bft)
12.08.2014 18:26 14,2 C 12,8 C 93 % 1009,4 hPa 0,0 l/m 2 min 0 min 0,0 UV-I 284 W/m 21,3 km/h (4 Bft)
12.08.2014 18:28 14,2 C 12,8 C 93 % 1009,4 hPa 0,0 l/m 2 min 0 min 0,0 UV-I 200 W/m 21,3 km/h (4 Bft)
12.08.2014 18:30 14,4 C 12,8 C 93 % 1009,3 hPa 0,0 l/m 2 min 0 min 0,0 UV-I 279 W/m 17,7 km/h (3 Bft)
12.08.2014 18:32 14,6 C 13,3 C 93 % 1009,4 hPa 0,0 l/m 2 min 0 min 0,0 UV-I 321 W/m 17,7 km/h (3 Bft)
12.08.2014 18:34 14,7 C 13,3 C 93 % 1009,4 hPa 0,0 l/m 2 min 0 min 0,0 UV-I 309 W/m 21,3 km/h (4 Bft)
12.08.2014 18:36 14,9 C 13,3 C 93 % 1009,3 hPa 0,0 l/m 2 min 0 min 0,0 UV-I 293 W/m 14,2 km/h (3 Bft)
12.08.2014 18:38 15,0 C 13,3 C 93 % 1009,3 hPa 0,0 l/m 2 min 0 min 0,0 UV-I 282 W/m 17,7 km/h (3 Bft)
12.08.2014 18:40 15,1 C 13,3 C 92 % 1009,3 hPa 0,0 l/m 2 min 0 min 0,0 UV-I 266 W/m 17,7 km/h (3 Bft)
12.08.2014 18:42 15,2 C 13,3 C 92 % 1009,3 hPa 0,0 l/m 2 min 0 min 0,0 UV-I 211 W/m 24,7 km/h (4 Bft)
12.08.2014 18:44 15,2 C 13,3 C 91 % 1009,3 hPa 0,0 l/m 0 min 0 min 0,0 UV-I 62 W/m 17,7 km/h (3 Bft)
12.08.2014 18:46 15,1 C 13,3 C 91 % 1009,3 hPa 0,0 l/m 0 min 0 min 0,0 UV-I 68 W/m 14,2 km/h (3 Bft)
12.08.2014 18:48 15,1 C 13,3 C 91 % 1009,3 hPa 0,0 l/m 0 min 0 min 0,0 UV-I 74 W/m 10,7 km/h (2 Bft)
12.08.2014 18:50 15,1 C 13,3 C 91 % 1009,3 hPa 0,0 l/m 0 min 0 min 0,0 UV-I 76 W/m 21,3 km/h (4 Bft)
12.08.2014 18:52 15,1 C 13,3 C 91 % 1009,3 hPa 0,0 l/m 0 min 0 min 0,0 UV-I 78 W/m 21,3 km/h (4 Bft)
12.08.2014 18:54 15,0 C 13,3 C 91 % 1009,2 hPa 0,0 l/m 0 min 0 min 0,0 UV-I 84 W/m 21,3 km/h (4 Bft)
12.08.2014 18:56 15,0 C 13,3 C 91 % 1009,2 hPa 0,0 l/m 0 min 0 min 0,0 UV-I 91 W/m 17,7 km/h (3 Bft)
12.08.2014 18:58 15,0 C 13,3 C 91 % 1009,1 hPa 0,0 l/m 0 min 0 min 0,0 UV-I 95 W/m 14,2 km/h (3 Bft)
12.08.2014 19:00 15,0 C 13,9 C 91 % 1009,2 hPa 0,0 l/m 0 min 0 min 0,0 UV-I 93 W/m 17,7 km/h (3 Bft)
12.08.2014 19:02 15,0 C 13,9 C 91 % 1009,1 hPa 0,0 l/m 0 min 0 min 0,0 UV-I 88 W/m 14,2 km/h (3 Bft)
12.08.2014 19:04 15,1 C 13,9 C 91 % 1009,1 hPa 0,0 l/m 0 min 0 min 0,0 UV-I 81 W/m 14,2 km/h (3 Bft)
12.08.2014 19:06 15,1 C 13,9 C 92 % 1009,1 hPa 0,0 l/m 0 min 0 min 0,0 UV-I 75 W/m 24,7 km/h (4 Bft)
12.08.2014 19:08 15,1 C 13,9 C 92 % 1009,1 hPa 0,0 l/m 0 min 0 min 0,0 UV-I 67 W/m 17,7 km/h (3 Bft)
12.08.2014 19:10 14,9 C 13,9 C 92 % 1009,1 hPa 0,0 l/m 0 min 0 min 0,0 UV-I 64 W/m 17,7 km/h (3 Bft)
12.08.2014 19:12 14,9 C 13,9 C 92 % 1009,1 hPa 0,0 l/m 0 min 0 min 0,0 UV-I 61 W/m 14,2 km/h (3 Bft)
12.08.2014 19:14 14,9 C 13,3 C 92 % 1009,0 hPa 0,0 l/m 0 min 0 min 0,0 UV-I 59 W/m 14,2 km/h (3 Bft)
12.08.2014 19:16 14,9 C 13,3 C 92 % 1008,9 hPa 0,0 l/m 0 min 0 min 0,0 UV-I 58 W/m 14,2 km/h (3 Bft)
12.08.2014 19:18 14,9 C 13,3 C 93 % 1009,0 hPa 0,0 l/m 0 min 0 min 0,0 UV-I 57 W/m 21,3 km/h (4 Bft)
12.08.2014 19:20 14,9 C 13,3 C 93 % 1009,0 hPa 0,0 l/m 0 min 0 min 0,0 UV-I 56 W/m 14,2 km/h (3 Bft)
12.08.2014 19:22 14,8 C 13,3 C 92 % 1009,0 hPa 0,0 l/m 0 min 0 min 0,0 UV-I 56 W/m 17,7 km/h (3 Bft)
12.08.2014 19:24 14,8 C 13,3 C 93 % 1009,0 hPa 0,0 l/m 0 min 0 min 0,0 UV-I 54 W/m 21,3 km/h (4 Bft)
12.08.2014 19:26 14,8 C 13,3 C 93 % 1009,1 hPa 0,0 l/m 0 min 0 min 0,0 UV-I 53 W/m 17,7 km/h (3 Bft)
12.08.2014 19:28 14,8 C 13,3 C 93 % 1009,0 hPa 0,0 l/m 0 min 0 min 0,0 UV-I 49 W/m 10,7 km/h (2 Bft)
12.08.2014 19:30 14,8 C 13,3 C 93 % 1009,1 hPa 0,0 l/m 0 min 0 min 0,0 UV-I 45 W/m 17,7 km/h (3 Bft)
12.08.2014 19:32 14,8 C 13,3 C 93 % 1009,1 hPa 0,0 l/m 0 min 0 min 0,0 UV-I 41 W/m 17,7 km/h (3 Bft)
12.08.2014 19:34 14,8 C 13,3 C 93 % 1009,0 hPa 0,0 l/m 0 min 0 min 0,0 UV-I 34 W/m 17,7 km/h (3 Bft)
12.08.2014 19:36 14,8 C 13,3 C 93 % 1009,4 hPa 0,0 l/m 0 min 0 min 0,0 UV-I 26 W/m 24,7 km/h (4 Bft)
12.08.2014 19:38 14,8 C 13,3 C 93 % 1009,4 hPa 0,0 l/m 0 min 0 min 0,0 UV-I 25 W/m 17,7 km/h (3 Bft)
12.08.2014 19:40 14,8 C 13,3 C 93 % 1009,4 hPa 0,0 l/m 0 min 0 min 0,0 UV-I 24 W/m 28,2 km/h (4 Bft)
12.08.2014 19:42 14,8 C 13,3 C 93 % 1009,3 hPa 0,0 l/m 0 min 0 min 0,0 UV-I 20 W/m 28,2 km/h (4 Bft)
12.08.2014 19:44 14,8 C 13,3 C 93 % 1009,2 hPa 0,0 l/m 0 min 0 min 0,0 UV-I 15 W/m 31,7 km/h (5 Bft)
12.08.2014 19:46 14,8 C 13,3 C 93 % 1009,1 hPa 0,0 l/m 0 min 2 min 0,0 UV-I 16 W/m 31,7 km/h (5 Bft)
12.08.2014 19:48 14,8 C 13,3 C 93 % 1009,2 hPa 0,0 l/m 0 min 2 min 0,0 UV-I 19 W/m 28,2 km/h (4 Bft)
12.08.2014 19:50 14,8 C 13,3 C 93 % 1009,2 hPa 0,0 l/m 0 min 2 min 0,0 UV-I 23 W/m 28,2 km/h (4 Bft)
12.08.2014 19:52 14,8 C 13,3 C 93 % 1009,1 hPa 0,0 l/m 0 min 0 min 0,0 UV-I 28 W/m 31,7 km/h (5 Bft)
12.08.2014 19:54 14,8 C 13,3 C 93 % 1009,1 hPa 0,0 l/m 0 min 0 min 0,0 UV-I 33 W/m 28,2 km/h (4 Bft)
12.08.2014 19:56 14,8 C 13,3 C 92 % 1009,0 hPa 0,0 l/m 0 min 0 min 0,0 UV-I 45 W/m 35,4 km/h (5 Bft)
12.08.2014 19:58 14,8 C 13,3 C 92 % 1008,9 hPa 0,0 l/m 0 min 0 min 0,0 UV-I 60 W/m 21,3 km/h (4 Bft)
12.08.2014 20:00 14,8 C 13,3 C 92 % 1008,9 hPa 0,0 l/m 2 min 0 min 0,0 UV-I 75 W/m 21,3 km/h (4 Bft)
12.08.2014 20:02 14,8 C 13,3 C 92 % 1008,9 hPa 0,0 l/m 2 min 0 min 0,0 UV-I 83 W/m 21,3 km/h (4 Bft)
12.08.2014 20:04 14,9 C 13,3 C 92 % 1008,9 hPa 0,0 l/m 2 min 0 min 0,0 UV-I 87 W/m 21,3 km/h (4 Bft)
12.08.2014 20:06 14,9 C 13,3 C 92 % 1008,9 hPa 0,0 l/m 2 min 0 min 0,0 UV-I 87 W/m 28,2 km/h (4 Bft)
12.08.2014 20:08 14,9 C 13,9 C 92 % 1008,9 hPa 0,0 l/m 2 min 0 min 0,0 UV-I 94 W/m 24,7 km/h (4 Bft)
12.08.2014 20:10 14,9 C 13,9 C 92 % 1008,9 hPa 0,0 l/m 2 min 0 min 0,0 UV-I 87 W/m 10,7 km/h (2 Bft)
12.08.2014 20:12 15,1 C 13,9 C 93 % 1008,9 hPa 0,0 l/m 2 min 0 min 0,0 UV-I 75 W/m 17,7 km/h (3 Bft)
12.08.2014 20:14 15,0 C 13,9 C 93 % 1008,9 hPa 0,0 l/m 2 min 0 min 0,0 UV-I 61 W/m 17,7 km/h (3 Bft)
12.08.2014 20:16 15,0 C 13,3 C 92 % 1009,0 hPa 0,0 l/m 2 min 0 min 0,0 UV-I 50 W/m 17,7 km/h (3 Bft)
12.08.2014 20:18 14,9 C 13,3 C 92 % 1009,0 hPa 0,0 l/m 0 min 0 min 0,0 UV-I 41 W/m 24,7 km/h (4 Bft)
12.08.2014 20:20 14,9 C 13,3 C 93 % 1009,0 hPa 0,0 l/m 0 min 0 min 0,0 UV-I 36 W/m 21,3 km/h (4 Bft)
12.08.2014 20:22 14,8 C 13,3 C 93 % 1008,9 hPa 0,0 l/m 0 min 0 min 0,0 UV-I 31 W/m 21,3 km/h (4 Bft)
12.08.2014 20:24 14,8 C 13,3 C 92 % 1008,9 hPa 0,0 l/m 0 min 0 min 0,0 UV-I 26 W/m 28,2 km/h (4 Bft)
12.08.2014 20:26 14,7 C 13,3 C 92 % 1008,9 hPa 0,0 l/m 0 min 0 min 0,0 UV-I 25 W/m 35,4 km/h (5 Bft)
12.08.2014 20:28 14,7 C 12,8 C 92 % 1008,9 hPa 0,0 l/m 0 min 0 min 0,0 UV-I 23 W/m 28,2 km/h (4 Bft)
12.08.2014 20:30 14,6 C 12,8 C 92 % 1008,9 hPa 0,0 l/m 0 min 0 min 0,0 UV-I 21 W/m 28,2 km/h (4 Bft)
12.08.2014 20:32 14,5 C 12,8 C 92 % 1008,8 hPa 0,0 l/m 0 min 0 min 0,0 UV-I 21 W/m 31,7 km/h (5 Bft)
12.08.2014 20:34 14,4 C 12,8 C 91 % 1008,8 hPa 0,0 l/m 0 min 0 min 0,0 UV-I 19 W/m 31,7 km/h (5 Bft)
12.08.2014 20:36 14,4 C 12,8 C 91 % 1008,9 hPa 0,0 l/m 0 min 0 min 0,0 UV-I 19 W/m 24,7 km/h (4 Bft)
12.08.2014 20:38 14,3 C 12,8 C 91 % 1008,9 hPa 0,0 l/m 0 min 0 min 0,0 UV-I 18 W/m 38,9 km/h (6 Bft)
12.08.2014 20:40 14,2 C 12,8 C 91 % 1009,0 hPa 0,0 l/m 0 min 0 min 0,0 UV-I 18 W/m 21,3 km/h (4 Bft)
12.08.2014 20:42 14,2 C 12,8 C 91 % 1009,0 hPa 0,0 l/m 0 min 0 min 0,0 UV-I 17 W/m 21,3 km/h (4 Bft)
12.08.2014 20:44 14,2 C 12,8 C 91 % 1009,1 hPa 0,0 l/m 2 min 0 min 0,0 UV-I 16 W/m 24,7 km/h (4 Bft)
12.08.2014 20:46 14,2 C 12,8 C 91 % 1009,1 hPa 0,0 l/m 2 min 0 min 0,0 UV-I 15 W/m 21,3 km/h (4 Bft)
12.08.2014 20:48 14,2 C 12,8 C 91 % 1009,0 hPa 0,0 l/m 2 min 0 min 0,0 UV-I 13 W/m 14,2 km/h (3 Bft)
12.08.2014 20:50 14,2 C 12,2 C 91 % 1009,0 hPa 0,0 l/m 0 min 0 min 0,0 UV-I 12 W/m 17,7 km/h (3 Bft)
12.08.2014 20:52 14,1 C 12,2 C 91 % 1009,0 hPa 0,0 l/m 0 min 0 min 0,0 UV-I 11 W/m 21,3 km/h (4 Bft)
12.08.2014 20:54 14,1 C 12,2 C 91 % 1009,0 hPa 0,0 l/m 0 min 0 min 0,0 UV-I 10 W/m 14,2 km/h (3 Bft)
12.08.2014 20:56 14,1 C 12,2 C 91 % 1009,0 hPa 0,0 l/m 0 min 0 min 0,0 UV-I 9 W/m 14,2 km/h (3 Bft)
12.08.2014 20:58 14,0 C 12,2 C 92 % 1009,1 hPa 0,0 l/m 0 min 0 min 0,0 UV-I 0 W/m 21,3 km/h (4 Bft)
12.08.2014 21:00 14,0 C 12,2 C 92 % 1009,1 hPa 0,0 l/m 0 min 0 min 0,0 UV-I 0 W/m 28,2 km/h (4 Bft)
12.08.2014 21:02 14,0 C 12,2 C 92 % 1008,9 hPa 0,0 l/m 0 min 0 min 0,0 UV-I 0 W/m 28,2 km/h (4 Bft)
12.08.2014 21:04 13,9 C 12,2 C 92 % 1008,9 hPa 0,0 l/m 0 min 0 min 0,0 UV-I 0 W/m 10,7 km/h (2 Bft)
12.08.2014 21:06 13,9 C 12,2 C 92 % 1008,9 hPa 0,0 l/m 0 min 0 min 0,0 UV-I 0 W/m 0,0 km/h (0 Bft)
12.08.2014 21:08 13,8 C 12,2 C 92 % 1008,9 hPa 0,0 l/m 0 min 0 min 0,0 UV-I 0 W/m 14,2 km/h (3 Bft)
12.08.2014 21:10 13,8 C 12,2 C 92 % 1008,9 hPa 0,0 l/m 0 min 0 min 0,0 UV-I 0 W/m 21,3 km/h (4 Bft)
12.08.2014 21:12 13,8 C 12,2 C 93 % 1008,9 hPa 0,0 l/m 0 min 0 min 0,0 UV-I 0 W/m 17,7 km/h (3 Bft)
12.08.2014 21:14 13,8 C 12,2 C 95 % 1008,9 hPa 0,0 l/m 0 min 0 min 0,0 UV-I 0 W/m 14,2 km/h (3 Bft)
12.08.2014 21:16 13,7 C 12,2 C 93 % 1008,9 hPa 0,0 l/m 0 min 0 min 0,0 UV-I 0 W/m 21,3 km/h (4 Bft)
12.08.2014 21:18 13,7 C 12,2 C 93 % 1009,0 hPa 0,0 l/m 0 min 0 min 0,0 UV-I 0 W/m 17,7 km/h (3 Bft)
12.08.2014 21:20 13,7 C 12,2 C 93 % 1009,0 hPa 0,0 l/m 0 min 0 min 0,0 UV-I 0 W/m 10,7 km/h (2 Bft)
12.08.2014 21:22 13,7 C 12,2 C 93 % 1009,0 hPa 0,0 l/m 0 min 0 min 0,0 UV-I 0 W/m 17,7 km/h (3 Bft)
12.08.2014 21:24 13,7 C 12,2 C 94 % 1009,1 hPa 0,0 l/m 0 min 0 min 0,0 UV-I 0 W/m 14,2 km/h (3 Bft)
12.08.2014 21:26 13,7 C 12,2 C 94 % 1008,9 hPa 0,0 l/m 0 min 0 min 0,0 UV-I 0 W/m 17,7 km/h (3 Bft)
12.08.2014 21:28 13,7 C 12,2 C 94 % 1009,0 hPa 0,0 l/m 0 min 0 min 0,0 UV-I 0 W/m 21,3 km/h (4 Bft)
12.08.2014 21:30 13,7 C 12,2 C 94 % 1009,1 hPa 0,0 l/m 0 min 0 min 0,0 UV-I 0 W/m 17,7 km/h (3 Bft)
12.08.2014 21:32 13,7 C 12,2 C 94 % 1009,1 hPa 0,0 l/m 0 min 0 min 0,0 UV-I 0 W/m 17,7 km/h (3 Bft)
12.08.2014 21:34 13,8 C 12,2 C 94 % 1009,1 hPa 0,0 l/m 0 min 0 min 0,0 UV-I 0 W/m 17,7 km/h (3 Bft)
12.08.2014 21:36 13,8 C 12,2 C 94 % 1009,1 hPa 0,0 l/m 0 min 0 min 0,0 UV-I 0 W/m 24,7 km/h (4 Bft)
12.08.2014 21:38 13,8 C 12,2 C 94 % 1009,2 hPa 0,0 l/m 0 min 0 min 0,0 UV-I 0 W/m 24,7 km/h (4 Bft)
12.08.2014 21:40 13,8 C 12,2 C 94 % 1009,2 hPa 0,0 l/m 0 min 0 min 0,0 UV-I 0 W/m 31,7 km/h (5 Bft)
12.08.2014 21:42 13,8 C 12,2 C 94 % 1009,2 hPa 0,0 l/m 0 min 0 min 0,0 UV-I 0 W/m 21,3 km/h (4 Bft)
12.08.2014 21:44 13,9 C 12,2 C 94 % 1009,1 hPa 0,0 l/m 0 min 0 min 0,0 UV-I 0 W/m 28,2 km/h (4 Bft)
12.08.2014 21:46 13,8 C 12,2 C 94 % 1009,1 hPa 0,0 l/m 0 min 0 min 0,0 UV-I 0 W/m 24,7 km/h (4 Bft)
12.08.2014 21:48 13,8 C 12,2 C 94 % 1009,1 hPa 0,0 l/m 0 min 0 min 0,0 UV-I 0 W/m 14,2 km/h (3 Bft)
12.08.2014 21:50 13,8 C 12,2 C 94 % 1009,1 hPa 0,0 l/m 0 min 0 min 0,0 UV-I 0 W/m 21,3 km/h (4 Bft)
12.08.2014 21:52 13,8 C 12,2 C 94 % 1009,1 hPa 0,0 l/m 0 min 0 min 0,0 UV-I 0 W/m 28,2 km/h (4 Bft)
12.08.2014 21:54 13,8 C 12,2 C 94 % 1009,1 hPa 0,0 l/m 0 min 0 min 0,0 UV-I 0 W/m 21,3 km/h (4 Bft)
12.08.2014 21:56 13,8 C 12,2 C 94 % 1009,0 hPa 0,0 l/m 0 min 0 min 0,0 UV-I 0 W/m 24,7 km/h (4 Bft)
12.08.2014 21:58 13,8 C 12,2 C 94 % 1009,0 hPa 0,0 l/m 0 min 0 min 0,0 UV-I 0 W/m 24,7 km/h (4 Bft)
12.08.2014 22:00 13,8 C 12,2 C 93 % 1009,0 hPa 0,0 l/m 0 min 0 min 0,0 UV-I 0 W/m 21,3 km/h (4 Bft)
12.08.2014 22:02 13,8 C 12,2 C 93 % 1009,0 hPa 0,0 l/m 0 min 0 min 0,0 UV-I 0 W/m 28,2 km/h (4 Bft)
12.08.2014 22:04 13,7 C 12,2 C 93 % 1008,9 hPa 0,0 l/m 0 min 0 min 0,0 UV-I 0 W/m 35,4 km/h (5 Bft)
12.08.2014 22:06 13,7 C 12,2 C 93 % 1009,0 hPa 0,0 l/m 0 min 0 min 0,0 UV-I 0 W/m 21,3 km/h (4 Bft)
12.08.2014 22:08 13,7 C 12,2 C 93 % 1008,9 hPa 0,0 l/m 0 min 0 min 0,0 UV-I 0 W/m 24,7 km/h (4 Bft)
12.08.2014 22:10 13,7 C 12,2 C 93 % 1009,0 hPa 0,0 l/m 0 min 0 min 0,0 UV-I 0 W/m 35,4 km/h (5 Bft)
12.08.2014 22:12 13,7 C 12,2 C 93 % 1008,9 hPa 0,0 l/m 0 min 0 min 0,0 UV-I 0 W/m 21,3 km/h (4 Bft)
12.08.2014 22:14 13,7 C 12,2 C 93 % 1008,9 hPa 0,0 l/m 0 min 0 min 0,0 UV-I 0 W/m 10,7 km/h (2 Bft)
12.08.2014 22:16 13,6 C 12,2 C 93 % 1008,9 hPa 0,0 l/m 0 min 0 min 0,0 UV-I 0 W/m 21,3 km/h (4 Bft)
12.08.2014 22:18 13,6 C 12,2 C 93 % 1008,8 hPa 0,0 l/m 0 min 0 min 0,0 UV-I 0 W/m 14,2 km/h (3 Bft)
12.08.2014 22:20 13,6 C 11,7 C 93 % 1008,8 hPa 0,0 l/m 0 min 0 min 0,0 UV-I 0 W/m 17,7 km/h (3 Bft)
12.08.2014 22:22 13,6 C 11,7 C 93 % 1008,8 hPa 0,0 l/m 0 min 0 min 0,0 UV-I 0 W/m 17,7 km/h (3 Bft)
12.08.2014 22:24 13,5 C 12,2 C 93 % 1008,8 hPa 0,0 l/m 0 min 0 min 0,0 UV-I 0 W/m 10,7 km/h (2 Bft)
12.08.2014 22:26 13,5 C 12,2 C 93 % 1008,8 hPa 0,0 l/m 0 min 0 min 0,0 UV-I 0 W/m 21,3 km/h (4 Bft)
12.08.2014 22:28 13,5 C 12,2 C 93 % 1008,8 hPa 0,0 l/m 0 min 0 min 0,0 UV-I 0 W/m 10,7 km/h (2 Bft)
12.08.2014 22:30 13,5 C 11,7 C 93 % 1008,9 hPa 0,0 l/m 0 min 0 min 0,0 UV-I 0 W/m 14,2 km/h (3 Bft)
12.08.2014 22:32 13,5 C 11,7 C 93 % 1009,0 hPa 0,0 l/m 0 min 0 min 0,0 UV-I 0 W/m 17,7 km/h (3 Bft)
12.08.2014 22:34 13,4 C 11,7 C 93 % 1008,9 hPa 0,0 l/m 0 min 0 min 0,0 UV-I 0 W/m 14,2 km/h (3 Bft)
12.08.2014 22:36 13,4 C 11,7 C 93 % 1008,9 hPa 0,0 l/m 0 min 0 min 0,0 UV-I 0 W/m 17,7 km/h (3 Bft)
12.08.2014 22:38 13,4 C 11,7 C 93 % 1008,9 hPa 0,0 l/m 0 min 0 min 0,0 UV-I 0 W/m 17,7 km/h (3 Bft)
12.08.2014 22:40 13,4 C 12,2 C 93 % 1008,9 hPa 0,0 l/m 0 min 0 min 0,0 UV-I 0 W/m 24,7 km/h (4 Bft)
12.08.2014 22:42 13,4 C 12,2 C 93 % 1008,9 hPa 0,0 l/m 0 min 0 min 0,0 UV-I 0 W/m 24,7 km/h (4 Bft)
12.08.2014 22:44 13,4 C 12,2 C 94 % 1008,9 hPa 0,0 l/m 0 min 0 min 0,0 UV-I 0 W/m 17,7 km/h (3 Bft)
12.08.2014 22:46 13,4 C 11,7 C 94 % 1008,8 hPa 0,0 l/m 0 min 0 min 0,0 UV-I 0 W/m 21,3 km/h (4 Bft)
12.08.2014 22:48 13,4 C 11,7 C 94 % 1008,9 hPa 0,0 l/m 0 min 0 min 0,0 UV-I 0 W/m 17,7 km/h (3 Bft)
12.08.2014 22:50 13,4 C 11,7 C 94 % 1008,9 hPa 0,0 l/m 0 min 0 min 0,0 UV-I 0 W/m 24,7 km/h (4 Bft)
12.08.2014 22:52 13,4 C 12,2 C 94 % 1008,9 hPa 0,0 l/m 0 min 0 min 0,0 UV-I 0 W/m 28,2 km/h (4 Bft)
12.08.2014 22:54 13,4 C 12,2 C 94 % 1008,9 hPa 0,0 l/m 0 min 0 min 0,0 UV-I 0 W/m 17,7 km/h (3 Bft)
12.08.2014 22:56 13,4 C 12,2 C 94 % 1008,9 hPa 0,0 l/m 0 min 0 min 0,0 UV-I 0 W/m 24,7 km/h (4 Bft)
12.08.2014 22:58 13,4 C 12,2 C 94 % 1009,0 hPa 0,0 l/m 0 min 0 min 0,0 UV-I 0 W/m 24,7 km/h (4 Bft)
12.08.2014 23:00 13,4 C 12,2 C 94 % 1009,0 hPa 0,0 l/m 0 min 0 min 0,0 UV-I 0 W/m 14,2 km/h (3 Bft)
12.08.2014 23:02 13,4 C 12,2 C 94 % 1009,0 hPa 0,0 l/m 0 min 0 min 0,0 UV-I 0 W/m 21,3 km/h (4 Bft)
12.08.2014 23:04 13,4 C 12,2 C 94 % 1008,9 hPa 0,0 l/m 0 min 0 min 0,0 UV-I 0 W/m 21,3 km/h (4 Bft)
12.08.2014 23:06 13,4 C 12,2 C 93 % 1008,9 hPa 0,0 l/m 0 min 0 min 0,0 UV-I 0 W/m 17,7 km/h (3 Bft)
12.08.2014 23:09 13,4 C 12,2 C 93 % 1008,8 hPa 0,0 l/m 0 min 0 min 0,0 UV-I 0 W/m 17,7 km/h (3 Bft)
12.08.2014 23:10 13,4 C 11,7 C 93 % 1008,8 hPa 0,0 l/m 0 min 0 min 0,0 UV-I 0 W/m 14,2 km/h (3 Bft)
12.08.2014 23:12 13,4 C 11,7 C 93 % 1008,7 hPa 0,0 l/m 0 min 0 min 0,0 UV-I 0 W/m 24,7 km/h (4 Bft)
12.08.2014 23:14 13,4 C 12,2 C 93 % 1008,8 hPa 0,0 l/m 0 min 0 min 0,0 UV-I 0 W/m 17,7 km/h (3 Bft)
12.08.2014 23:16 13,4 C 12,2 C 93 % 1008,8 hPa 0,0 l/m 0 min 0 min 0,0 UV-I 0 W/m 24,7 km/h (4 Bft)
12.08.2014 23:18 13,4 C 12,2 C 93 % 1008,8 hPa 0,0 l/m 0 min 0 min 0,0 UV-I 0 W/m 17,7 km/h (3 Bft)
12.08.2014 23:20 13,4 C 12,2 C 93 % 1008,8 hPa 0,0 l/m 0 min 0 min 0,0 UV-I 0 W/m 10,7 km/h (2 Bft)
12.08.2014 23:22 13,4 C 12,2 C 93 % 1008,8 hPa 0,0 l/m 0 min 0 min 0,0 UV-I 0 W/m 24,7 km/h (4 Bft)
12.08.2014 23:24 13,4 C 12,2 C 93 % 1008,8 hPa 0,0 l/m 0 min 0 min 0,0 UV-I 0 W/m 21,3 km/h (4 Bft)
12.08.2014 23:26 13,4 C 12,2 C 93 % 1008,7 hPa 0,0 l/m 0 min 0 min 0,0 UV-I 0 W/m 7,1 km/h (2 Bft)
12.08.2014 23:28 13,5 C 12,2 C 93 % 1008,7 hPa 0,0 l/m 0 min 0 min 0,0 UV-I 0 W/m 17,7 km/h (3 Bft)
12.08.2014 23:30 13,5 C 12,2 C 93 % 1008,7 hPa 0,0 l/m 0 min 0 min 0,0 UV-I 0 W/m 17,7 km/h (3 Bft)
12.08.2014 23:32 13,5 C 12,2 C 93 % 1008,8 hPa 0,0 l/m 0 min 0 min 0,0 UV-I 0 W/m 10,7 km/h (2 Bft)
12.08.2014 23:34 13,6 C 12,2 C 93 % 1008,8 hPa 0,0 l/m 0 min 0 min 0,0 UV-I 0 W/m 21,3 km/h (4 Bft)
12.08.2014 23:36 13,6 C 12,2 C 93 % 1008,8 hPa 0,0 l/m 0 min 0 min 0,0 UV-I 0 W/m 17,7 km/h (3 Bft)
12.08.2014 23:38 13,6 C 12,2 C 93 % 1008,8 hPa 0,0 l/m 0 min 0 min 0,0 UV-I 0 W/m 17,7 km/h (3 Bft)
12.08.2014 23:40 13,6 C 12,2 C 93 % 1008,7 hPa 0,0 l/m 0 min 0 min 0,0 UV-I 0 W/m 17,7 km/h (3 Bft)
12.08.2014 23:42 13,6 C 12,2 C 93 % 1008,7 hPa 0,0 l/m 0 min 0 min 0,0 UV-I 0 W/m 21,3 km/h (4 Bft)
12.08.2014 23:44 13,6 C 12,2 C 93 % 1008,7 hPa 0,0 l/m 0 min 0 min 0,0 UV-I 0 W/m 17,7 km/h (3 Bft)
12.08.2014 23:46 13,7 C 12,2 C 93 % 1008,7 hPa 0,0 l/m 0 min 0 min 0,0 UV-I 0 W/m 17,7 km/h (3 Bft)
12.08.2014 23:48 13,7 C 12,2 C 92 % 1008,7 hPa 0,0 l/m 0 min 0 min 0,0 UV-I 0 W/m 10,7 km/h (2 Bft)
12.08.2014 23:50 13,7 C 12,2 C 93 % 1008,7 hPa 0,0 l/m 0 min 0 min 0,0 UV-I 0 W/m 14,2 km/h (3 Bft)
12.08.2014 23:52 13,8 C 12,2 C 92 % 1008,7 hPa 0,0 l/m 0 min 0 min 0,0 UV-I 0 W/m 17,7 km/h (3 Bft)
12.08.2014 23:54 13,8 C 12,2 C 92 % 1008,7 hPa 0,0 l/m 0 min 0 min 0,0 UV-I 0 W/m 14,2 km/h (3 Bft)
12.08.2014 23:56 13,8 C 12,2 C 92 % 1008,7 hPa 0,0 l/m 0 min 0 min 0,0 UV-I 0 W/m 14,2 km/h (3 Bft)
12.08.2014 23:58 13,9 C 12,2 C 92 % 1008,7 hPa 0,0 l/m 0 min 0 min 0,0 UV-I 0 W/m 10,7 km/h (2 Bft)
_ Min-Zeit 06:22 22:20 15:52 23:12 - - - - - 21:06
Minimum _ 13,3 C 11,7 C 61 % 1008,7 hPa - - - - - 0,0 km/h (0 Bft)
_ Max-Zeit 16:16 12:18 17:10 11:20 16:46 06:30 12:05 13:22 13:20 13:50
Maximum _ 21,3 C 20,6 C 95 % 1011,4 hPa 1,6 l/m 2 min 2 min 4,6 UV-I 925 W/m 91,9 km/h
W (10 Bft)
Durchschnitt _ 15,7 C 14,3 C 85 % 1010,3 hPa #8,0 l/m #7:14 h #2:30 h 2,2 UV-I 275 W/m 33,2 km/h (5 Bft)
© 2014 W. Hausmann